Darstellungsparameter: Aktuell verwendete Einstellungen:
Skalierung der Graphiken ... ?
xyx+y,   Skalierungsfaktor:      Skalierung: Modus: x, Faktor: 1
Darstellungszeitraum ... ?
Vom - - bis: - -   Zeitraum: 03.12.2019 - 31.12.2019
Min/Max/Avg-Anzeige ... ?
Zeige MMA aktuell
Zeige MMA Monat
Zeige MMA alles
Zeige --A aktuell
Zeige --A Monat
Zeige --A alles
Keine MMA-Anzeige
MMA:
Average (ber die Originaldaten)
MMA-Basis: 03.12.2019 - 31.12.2019
Quicknavigation für Darstellung... ?
Tage:      1T, 2T, 3T, 5T -1T -2T -3T -5T +1T +2T +3T +5T
Wochen: 1W, 2W, 3W -1W -2W -3W +1W +2W +3W
Monate: 1M, 3M, 6M -1M -3M -6M +1M +3M +6M
Jahre:    1J, 3J, 5J, 10J -1J -3J -5J -10J +1J +3J +5J +10J
Nutze für die Darstellung ... ?
Originaldaten oder ...
Mittelwerte Minima Maxima auf...
Stundenbasis Tagesbasis Wochenbasis
Monatsbasis Jahresbasis      Datenbasis: Mittelwerte auf Stundenbasis
Darstellen als:
Statistik (Auto) Statistik J:M      Darstellung:
Zur Graphik,    zurück zur Übersicht aller Sensoren.
 
Tabellarische Datenbersicht: ?
 
Sensor: Nr:Datum:Temp:Feuchte:
Aussen-T/F 1 03-12-2019 00:00:00 2.53333 C 41.3333 %
2 03-12-2019 01:00:00 2.66667 C 41.3333 %
3 03-12-2019 02:00:00 2.8 C 42.0000 %
4 03-12-2019 03:00:00 2.88333 C 42.0000 %
5 03-12-2019 04:00:00 3.05 C 42.0000 %
6 03-12-2019 05:00:00 3.15 C 41.6667 %
7 03-12-2019 06:00:00 3.25 C 41.0000 %
8 03-12-2019 07:00:00 3.28333 C 41.1667 %
9 03-12-2019 08:00:00 3.36667 C 41.6667 %
10 03-12-2019 09:00:00 3.56667 C 41.3333 %
11 03-12-2019 10:00:00 3.88333 C 40.6667 %
12 03-12-2019 11:00:00 4.48333 C 37.3333 %
13 03-12-2019 12:00:00 5.01667 C 35.0000 %
14 03-12-2019 13:00:00 5.81667 C 32.3333 %
15 03-12-2019 14:00:00 6.21667 C 30.8333 %
16 03-12-2019 15:00:00 6.18333 C 31.3333 %
17 03-12-2019 16:00:00 5.4 C 39.6667 %
18 03-12-2019 17:00:00 5.05 C 41.0000 %
19 03-12-2019 18:00:00 4.71667 C 40.1667 %
20 03-12-2019 19:00:00 4.53333 C 38.3333 %
21 03-12-2019 20:00:00 4.16667 C 38.5000 %
22 03-12-2019 21:00:00 3.75 C 40.1667 %
23 03-12-2019 22:00:00 3.08333 C 40.8333 %
24 03-12-2019 23:00:00 2.53333 C 39.8333 %
25 04-12-2019 00:00:00 1.2 C 42.1667 %
Sensor: Nr:Datum:Temp:Feuchte:
Aussen-T/F 26 04-12-2019 01:00:00 0.01667 C 44.6667 %
27 04-12-2019 02:00:00 -0.16667 C 45.0000 %
28 04-12-2019 03:00:00 0.9 C 44.5000 %
29 04-12-2019 04:00:00 0.81667 C 45.0000 %
30 04-12-2019 05:00:00 0.9 C 43.6667 %
31 04-12-2019 06:00:00 1.15 C 43.0000 %
32 04-12-2019 07:00:00 1.03333 C 43.1667 %
33 04-12-2019 08:00:00 0.93333 C 43.3333 %
34 04-12-2019 09:00:00 1.2 C 41.5000 %
35 04-12-2019 10:00:00 1.23333 C 38.3333 %
36 04-12-2019 11:00:00 1.06667 C 39.5000 %
37 04-12-2019 12:00:00 1.4 C 41.0000 %
38 04-12-2019 13:00:00 1.85 C 39.5000 %
39 04-12-2019 14:00:00 2.1 C 36.0000 %
40 04-12-2019 15:00:00 1.78333 C 38.8333 %
41 04-12-2019 16:00:00 1.36667 C 36.8333 %
42 04-12-2019 17:00:00 0.86667 C 37.5000 %
43 04-12-2019 18:00:00 0.23333 C 39.6667 %
44 04-12-2019 19:00:00 -0.95 C 43.1667 %
45 04-12-2019 20:00:00 -1.51667 C 44.0000 %
46 04-12-2019 21:00:00 -2.06667 C 43.3333 %
47 04-12-2019 22:00:00 -2.63333 C 43.1667 %
48 04-12-2019 23:00:00 -2.78333 C 41.8333 %
49 05-12-2019 00:00:00 -2.93333 C 41.0000 %
50 05-12-2019 01:00:00 -2.75 C 42.3333 %
Sensor: Nr:Datum:Temp:Feuchte:
Aussen-T/F 51 05-12-2019 02:00:00 -3 C 41.1667 %
52 05-12-2019 03:00:00 -3.33333 C 40.8333 %
53 05-12-2019 04:00:00 -2.86667 C 42.1667 %
54 05-12-2019 05:00:00 -2.66667 C 42.8333 %
55 05-12-2019 06:00:00 -2.83333 C 42.8333 %
56 05-12-2019 07:00:00 -2.98333 C 42.0000 %
57 05-12-2019 08:00:00 -2.91667 C 42.1667 %
58 05-12-2019 09:00:00 -2.56667 C 42.5000 %
59 05-12-2019 10:00:00 -2.03333 C 42.3333 %
60 05-12-2019 11:00:00 -1.18333 C 41.8333 %
61 05-12-2019 12:00:00 -0.78333 C 40.6667 %
62 05-12-2019 13:00:00 -0.33333 C 40.5000 %
63 05-12-2019 14:00:00 0.18333 C 40.1667 %
64 05-12-2019 15:00:00 -0.05 C 42.5000 %
65 05-12-2019 16:00:00 -0.73333 C 44.1667 %
66 05-12-2019 17:00:00 -1.35 C 44.3333 %
67 05-12-2019 18:00:00 -2.08333 C 42.8333 %
68 05-12-2019 19:00:00 -2.36667 C 42.5000 %
69 05-12-2019 20:00:00 -1.76667 C 42.6667 %
70 05-12-2019 21:00:00 -2.16667 C 42.6667 %
71 05-12-2019 22:00:00 -2.31667 C 42.0000 %
72 05-12-2019 23:00:00 -2.93333 C 41.3333 %
73 06-12-2019 00:00:00 -3.23333 C 41.5000 %
74 06-12-2019 01:00:00 -1.91667 C 42.5000 %
75 06-12-2019 02:00:00 -1.53333 C 40.1667 %
Sensor: Nr:Datum:Temp:Feuchte:
Aussen-T/F 76 06-12-2019 03:00:00 -1.11667 C 38.0000 %
77 06-12-2019 04:00:00 -1.13333 C 37.8333 %
78 06-12-2019 05:00:00 -0.85 C 37.0000 %
79 06-12-2019 06:00:00 -0.5 C 35.8333 %
80 06-12-2019 07:00:00 -0.05 C 35.8333 %
81 06-12-2019 08:00:00 0.46667 C 33.5000 %
82 06-12-2019 09:00:00 1.2 C 34.1667 %
83 06-12-2019 10:00:00 2.05 C 35.0000 %
84 06-12-2019 11:00:00 3.28333 C 32.6667 %
85 06-12-2019 12:00:00 3.65 C 36.1667 %
86 06-12-2019 13:00:00 4.03333 C 36.5000 %
87 06-12-2019 14:00:00 4.25 C 38.6667 %
88 06-12-2019 15:00:00 4.5 C 37.1667 %
89 06-12-2019 16:00:00 5.1 C 33.1667 %
90 06-12-2019 17:00:00 5.4 C 30.1667 %
91 06-12-2019 18:00:00 6.03333 C 28.8333 %
92 06-12-2019 19:00:00 6.08333 C 30.0000 %
93 06-12-2019 20:00:00 6.73333 C 28.0000 %
94 06-12-2019 21:00:00 6.63333 C 28.0000 %
95 06-12-2019 22:00:00 6.75 C 28.0000 %
96 06-12-2019 23:00:00 6.86667 C 28.6667 %
97 07-12-2019 00:00:00 7.15 C 28.3333 %
98 07-12-2019 01:00:00 7.61667 C 28.3333 %
99 07-12-2019 02:00:00 7.38333 C 33.3333 %
100 07-12-2019 03:00:00 8.26667 C 30.3333 %
Sensor: Nr:Datum:Temp:Feuchte:
Aussen-T/F 101 07-12-2019 04:00:00 8.13333 C 29.6667 %
102 07-12-2019 05:00:00 7.81667 C 30.3333 %
103 07-12-2019 06:00:00 8.11667 C 26.8333 %
104 07-12-2019 07:00:00 7.01667 C 29.0000 %
105 07-12-2019 08:00:00 8.13333 C 27.5000 %
106 07-12-2019 09:00:00 8.31667 C 27.8333 %
107 07-12-2019 10:00:00 8.96667 C 26.0000 %
108 07-12-2019 11:00:00 8.53333 C 28.8333 %
109 07-12-2019 12:00:00 9.21667 C 25.6667 %
110 07-12-2019 13:00:00 9.85 C 20.5000 %
111 07-12-2019 14:00:00 9.85 C 20.0000 %
112 07-12-2019 15:00:00 9.65 C 21.0000 %
113 07-12-2019 16:00:00 8.66667 C 25.6667 %
114 07-12-2019 17:00:00 8.16667 C 27.8333 %
115 07-12-2019 18:00:00 7.78333 C 28.6667 %
116 07-12-2019 19:00:00 7.58333 C 30.8333 %
117 07-12-2019 20:00:00 7.43333 C 30.3333 %
118 07-12-2019 21:00:00 7.88333 C 28.6667 %
119 07-12-2019 22:00:00 7.81667 C 29.0000 %
120 07-12-2019 23:00:00 7.61667 C 31.0000 %
121 08-12-2019 00:00:00 8.71667 C 23.3333 %
122 08-12-2019 01:00:00 8.68333 C 24.3333 %
123 08-12-2019 02:00:00 9.05 C 20.0000 %
124 08-12-2019 03:00:00 9.2 C 20.0000 %
125 08-12-2019 04:00:00 9.58333 C 20.0000 %
Sensor: Nr:Datum:Temp:Feuchte:
Aussen-T/F 126 08-12-2019 05:00:00 9.45 C 22.1667 %
127 08-12-2019 06:00:00 9.68333 C 23.6667 %
128 08-12-2019 07:00:00 10.01667 C 20.5000 %
129 08-12-2019 08:00:00 10.16667 C 20.5000 %
130 08-12-2019 09:00:00 10.28333 C 21.0000 %
131 08-12-2019 10:00:00 10.36667 C 22.6667 %
132 08-12-2019 11:00:00 10.75 C 23.0000 %
133 08-12-2019 12:00:00 11.31667 C 22.5000 %
134 08-12-2019 13:00:00 11.36667 C 24.3333 %
135 08-12-2019 14:00:00 11.6 C 25.0000 %
136 08-12-2019 15:00:00 11.76667 C 25.0000 %
137 08-12-2019 16:00:00 11.26667 C 26.5000 %
138 08-12-2019 17:00:00 8.76667 C 32.1667 %
139 08-12-2019 18:00:00 8.48333 C 30.3333 %
140 08-12-2019 19:00:00 8.38333 C 29.0000 %
141 08-12-2019 20:00:00 8.2 C 30.3333 %
142 08-12-2019 21:00:00 8.6 C 25.8333 %
143 08-12-2019 22:00:00 8.43333 C 26.0000 %
144 08-12-2019 23:00:00 8.65 C 24.5000 %
145 09-12-2019 00:00:00 8.41667 C 20.5000 %
146 09-12-2019 01:00:00 8.25 C 20.0000 %
147 09-12-2019 02:00:00 7.46667 C 20.8333 %
148 09-12-2019 03:00:00 7.31667 C 20.6667 %
149 09-12-2019 04:00:00 7.51667 C 21.0000 %
150 09-12-2019 05:00:00 7.25 C 20.8333 %
Sensor: Nr:Datum:Temp:Feuchte:
Aussen-T/F 151 09-12-2019 06:00:00 7.55 C 20.0000 %
152 09-12-2019 07:00:00 7.43333 C 20.0000 %
153 09-12-2019 08:00:00 7.9 C 20.0000 %
154 09-12-2019 09:00:00 7.63333 C 20.8333 %
155 09-12-2019 10:00:00 7.93333 C 20.6667 %
156 09-12-2019 11:00:00 8.23333 C 20.0000 %
157 09-12-2019 12:00:00 8.18333 C 20.0000 %
158 09-12-2019 13:00:00 8.36667 C 20.0000 %
159 09-12-2019 14:00:00 8.4 C 20.0000 %
160 09-12-2019 15:00:00 7.3 C 24.3333 %
161 09-12-2019 16:00:00 7.43333 C 20.0000 %
162 09-12-2019 17:00:00 6.5 C 27.8333 %
163 09-12-2019 18:00:00 5.88333 C 34.0000 %
164 09-12-2019 19:00:00 5.58333 C 37.5000 %
165 09-12-2019 20:00:00 5.51667 C 33.8333 %
166 09-12-2019 21:00:00 5.15 C 32.6667 %
167 09-12-2019 22:00:00 4.81667 C 30.5000 %
168 09-12-2019 23:00:00 4.23333 C 29.3333 %
169 10-12-2019 00:00:00 3.48333 C 30.0000 %
170 10-12-2019 01:00:00 2.48333 C 34.3333 %
171 10-12-2019 02:00:00 2.21667 C 34.8333 %
172 10-12-2019 03:00:00 1.7 C 40.6667 %
173 10-12-2019 04:00:00 0.86667 C 43.3333 %
174 10-12-2019 05:00:00 1.81667 C 37.6667 %
175 10-12-2019 06:00:00 1.28333 C 38.5000 %
Sensor: Nr:Datum:Temp:Feuchte:
Aussen-T/F 176 10-12-2019 07:00:00 1.21667 C 39.1667 %
177 10-12-2019 08:00:00 0.55 C 41.8333 %
178 10-12-2019 09:00:00 1.05 C 41.6667 %
179 10-12-2019 10:00:00 2.5 C 34.1667 %
180 10-12-2019 11:00:00 2.63333 C 33.8333 %
181 10-12-2019 12:00:00 4.01667 C 29.0000 %
182 10-12-2019 13:00:00 4.83333 C 26.3333 %
183 10-12-2019 14:00:00 3.96667 C 29.1667 %
184 10-12-2019 15:00:00 3.2 C 30.8333 %
185 10-12-2019 16:00:00 3.16667 C 29.1667 %
186 10-12-2019 17:00:00 2.65 C 27.1667 %
187 10-12-2019 18:00:00 1.83333 C 32.0000 %
188 10-12-2019 19:00:00 1.58333 C 35.8333 %
189 10-12-2019 20:00:00 2.46667 C 30.1667 %
190 10-12-2019 21:00:00 2.08333 C 33.0000 %
191 10-12-2019 22:00:00 2.3 C 33.5000 %
192 10-12-2019 23:00:00 3.06667 C 29.8333 %
193 11-12-2019 00:00:00 3.36667 C 28.3333 %
194 11-12-2019 01:00:00 3.33333 C 28.5000 %
195 11-12-2019 02:00:00 2.91667 C 32.1667 %
196 11-12-2019 03:00:00 2.96667 C 32.1667 %
197 11-12-2019 04:00:00 2.75 C 36.6667 %
198 11-12-2019 05:00:00 2.63333 C 41.1667 %
199 11-12-2019 06:00:00 2.5 C 44.0000 %
200 11-12-2019 07:00:00 2.41667 C 43.6667 %
Sensor: Nr:Datum:Temp:Feuchte:
Aussen-T/F 201 11-12-2019 08:00:00 2.35 C 43.0000 %
202 11-12-2019 09:00:00 2.45 C 43.0000 %
203 11-12-2019 10:00:00 2.76667 C 41.8333 %
204 11-12-2019 11:00:00 3.11667 C 38.6667 %
205 11-12-2019 12:00:00 3.11667 C 39.5000 %
206 11-12-2019 13:00:00 3.2 C 40.0000 %
207 11-12-2019 14:00:00 3.25 C 41.3333 %
208 11-12-2019 15:00:00 3.31667 C 42.0000 %
209 11-12-2019 16:00:00 3.16667 C 42.0000 %
210 11-12-2019 17:00:00 3.11667 C 42.3333 %
211 11-12-2019 18:00:00 3.35 C 43.0000 %
212 11-12-2019 19:00:00 3.53333 C 42.0000 %
213 11-12-2019 20:00:00 3.81667 C 41.8333 %
214 11-12-2019 21:00:00 4.25 C 37.6667 %
215 11-12-2019 22:00:00 3.9 C 37.5000 %
216 11-12-2019 23:00:00 3.43333 C 41.0000 %
217 12-12-2019 00:00:00 2.65 C 42.8333 %
218 12-12-2019 01:00:00 2.48333 C 43.3333 %
219 12-12-2019 02:00:00 1.78333 C 43.6667 %
220 12-12-2019 03:00:00 2.46667 C 43.0000 %
221 12-12-2019 04:00:00 2.7 C 42.8333 %
222 12-12-2019 05:00:00 2.1 C 42.0000 %
223 12-12-2019 06:00:00 2.18333 C 42.3333 %
224 12-12-2019 07:00:00 2.95 C 42.0000 %
225 12-12-2019 08:00:00 3.25 C 42.0000 %
Sensor: Nr:Datum:Temp:Feuchte:
Aussen-T/F 226 12-12-2019 09:00:00 3.68333 C 41.6667 %
227 12-12-2019 10:00:00 4.4 C 36.0000 %
228 12-12-2019 11:00:00 4.61667 C 31.0000 %
229 12-12-2019 12:00:00 4.88333 C 27.3333 %
230 12-12-2019 13:00:00 4.63333 C 26.3333 %
231 12-12-2019 14:00:00 4.48333 C 25.3333 %
232 12-12-2019 15:00:00 3.8 C 27.6667 %
233 12-12-2019 16:00:00 3.43333 C 27.5000 %
234 12-12-2019 17:00:00 1.41667 C 36.6667 %
235 12-12-2019 18:00:00 0.98333 C 40.3333 %
236 12-12-2019 19:00:00 0.65 C 41.5000 %
237 12-12-2019 20:00:00 0.71667 C 41.1667 %
238 12-12-2019 21:00:00 1.25 C 36.1667 %
239 12-12-2019 22:00:00 0.56667 C 38.3333 %
240 12-12-2019 23:00:00 1.5 C 33.0000 %
241 13-12-2019 00:00:00 0.9 C 33.6667 %
242 13-12-2019 01:00:00 1.9 C 28.0000 %
243 13-12-2019 02:00:00 1.98333 C 27.3333 %
244 13-12-2019 03:00:00 1.7 C 30.0000 %
245 13-12-2019 04:00:00 1.51667 C 32.3333 %
246 13-12-2019 05:00:00 1.6 C 33.5000 %
247 13-12-2019 06:00:00 1.9 C 33.0000 %
248 13-12-2019 07:00:00 1.8 C 38.5000 %
249 13-12-2019 08:00:00 1.71667 C 40.0000 %
250 13-12-2019 09:00:00 1.83333 C 41.1667 %
Sensor: Nr:Datum:Temp:Feuchte:
Aussen-T/F 251 13-12-2019 10:00:00 2.08333 C 41.6667 %
252 13-12-2019 11:00:00 2.45 C 40.8333 %
253 13-12-2019 12:00:00 3.31667 C 38.6667 %
254 13-12-2019 13:00:00 4.96667 C 35.8333 %
255 13-12-2019 14:00:00 6.73333 C 28.6667 %
256 13-12-2019 15:00:00 6 C 30.0000 %
257 13-12-2019 16:00:00 5.06667 C 30.3333 %
258 13-12-2019 17:00:00 4.31667 C 32.6667 %
259 13-12-2019 18:00:00 3.8 C 38.3333 %
260 13-12-2019 19:00:00 4.08333 C 34.6667 %
261 13-12-2019 20:00:00 4.66667 C 31.5000 %
262 13-12-2019 21:00:00 4.36667 C 34.1667 %
263 13-12-2019 22:00:00 4.36667 C 31.8333 %
264 13-12-2019 23:00:00 5 C 29.5000 %
265 14-12-2019 00:00:00 4.6 C 30.8333 %
266 14-12-2019 01:00:00 5.25 C 26.0000 %
267 14-12-2019 02:00:00 4.68333 C 28.6667 %
268 14-12-2019 03:00:00 3.96667 C 36.3333 %
269 14-12-2019 04:00:00 3.61667 C 41.5000 %
270 14-12-2019 05:00:00 3.4 C 42.0000 %
271 14-12-2019 06:00:00 4.48333 C 40.3333 %
272 14-12-2019 07:00:00 5.95 C 36.1667 %
273 14-12-2019 08:00:00 6.95 C 27.3333 %
274 14-12-2019 09:00:00 6.66667 C 21.8333 %
275 14-12-2019 10:00:00 6.48333 C 24.8333 %
Sensor: Nr:Datum:Temp:Feuchte:
Aussen-T/F 276 14-12-2019 11:00:00 6.43333 C 25.5000 %
277 14-12-2019 12:00:00 7.31667 C 20.0000 %
278 14-12-2019 13:00:00 8.23333 C 20.0000 %
279 14-12-2019 14:00:00 8.56667 C 20.0000 %
280 14-12-2019 15:00:00 6.88333 C 27.1667 %
281 14-12-2019 16:00:00 7.18333 C 25.6667 %
282 14-12-2019 17:00:00 7.3 C 25.6667 %
283 14-12-2019 18:00:00 7.36667 C 25.5000 %
284 14-12-2019 19:00:00 6.36667 C 26.1667 %
285 14-12-2019 20:00:00 6.48333 C 25.6667 %
286 14-12-2019 21:00:00 6.95 C 25.5000 %
287 14-12-2019 22:00:00 7.06667 C 25.5000 %
288 14-12-2019 23:00:00 7.13333 C 25.3333 %
289 15-12-2019 00:00:00 5.6 C 30.0000 %
290 15-12-2019 01:00:00 5.48333 C 31.8333 %
291 15-12-2019 02:00:00 5.83333 C 34.3333 %
292 15-12-2019 03:00:00 6.08333 C 41.3333 %
293 15-12-2019 04:00:00 7.46667 C 40.6667 %
294 15-12-2019 05:00:00 9 C 34.3333 %
295 15-12-2019 06:00:00 10.45 C 28.1667 %
296 15-12-2019 07:00:00 10.58333 C 27.0000 %
297 15-12-2019 08:00:00 10.48333 C 28.1667 %
298 15-12-2019 09:00:00 8.58333 C 34.5000 %
299 15-12-2019 10:00:00 8.3 C 32.3333 %
300 15-12-2019 11:00:00 8.48333 C 28.5000 %
Sensor: Nr:Datum:Temp:Feuchte:
Aussen-T/F 301 15-12-2019 12:00:00 8.16667 C 27.8333 %
302 15-12-2019 13:00:00 9.11667 C 22.6667 %
303 15-12-2019 14:00:00 9.16667 C 20.0000 %
304 15-12-2019 15:00:00 8.83333 C 20.0000 %
305 15-12-2019 16:00:00 8.08333 C 20.0000 %
306 15-12-2019 17:00:00 7.51667 C 20.1667 %
307 15-12-2019 18:00:00 7.03333 C 23.5000 %
308 15-12-2019 19:00:00 5.21667 C 31.8333 %
309 15-12-2019 20:00:00 4.36667 C 36.6667 %
310 15-12-2019 21:00:00 3.15 C 41.8333 %
311 15-12-2019 22:00:00 3.38333 C 43.1667 %
312 15-12-2019 23:00:00 3.56667 C 42.6667 %
313 16-12-2019 00:00:00 4.41667 C 42.0000 %
314 16-12-2019 01:00:00 5.21667 C 41.5000 %
315 16-12-2019 02:00:00 5.66667 C 41.8333 %
316 16-12-2019 03:00:00 5.88333 C 41.0000 %
317 16-12-2019 04:00:00 6.08333 C 41.0000 %
318 16-12-2019 05:00:00 6.55 C 41.0000 %
319 16-12-2019 06:00:00 6.81667 C 40.3333 %
320 16-12-2019 07:00:00 6.85 C 40.3333 %
321 16-12-2019 08:00:00 7.1 C 40.0000 %
322 16-12-2019 09:00:00 7.46667 C 40.0000 %
323 16-12-2019 10:00:00 7.88333 C 40.0000 %
324 16-12-2019 11:00:00 8.83333 C 39.5000 %
325 16-12-2019 12:00:00 9.41667 C 37.5000 %
Sensor: Nr:Datum:Temp:Feuchte:
Aussen-T/F 326 16-12-2019 13:00:00 10.08333 C 35.0000 %
327 16-12-2019 14:00:00 10.16667 C 33.8333 %
328 16-12-2019 15:00:00 9.45 C 37.0000 %
329 16-12-2019 16:00:00 8.25 C 40.3333 %
330 16-12-2019 17:00:00 7.28333 C 41.0000 %
331 16-12-2019 18:00:00 7.83333 C 39.6667 %
332 16-12-2019 19:00:00 8.08333 C 37.0000 %
333 16-12-2019 20:00:00 7.9 C 36.8333 %
334 16-12-2019 21:00:00 7.15 C 39.1667 %
335 16-12-2019 22:00:00 7.46667 C 38.1667 %
336 16-12-2019 23:00:00 7.51667 C 39.1667 %
337 17-12-2019 00:00:00 7.43333 C 38.5000 %
338 17-12-2019 01:00:00 7.41667 C 38.3333 %
339 17-12-2019 02:00:00 7.41667 C 36.6667 %
340 17-12-2019 03:00:00 8.5 C 33.5000 %
341 17-12-2019 04:00:00 8.35 C 32.1667 %
342 17-12-2019 05:00:00 8.18333 C 34.0000 %
343 17-12-2019 06:00:00 7.51667 C 37.0000 %
344 17-12-2019 07:00:00 7.4 C 36.6667 %
345 17-12-2019 08:00:00 6.96667 C 37.1667 %
346 17-12-2019 09:00:00 6.45 C 39.3333 %
347 17-12-2019 10:00:00 6.86667 C 38.6667 %
348 17-12-2019 11:00:00 8.81667 C 32.3333 %
349 17-12-2019 12:00:00 9.46667 C 32.8333 %
350 17-12-2019 13:00:00 11 C 29.0000 %
Sensor: Nr:Datum:Temp:Feuchte:
Aussen-T/F 351 17-12-2019 14:00:00 11.86667 C 26.6667 %
352 17-12-2019 15:00:00 12.01667 C 26.0000 %
353 17-12-2019 16:00:00 12.31667 C 25.0000 %
354 17-12-2019 17:00:00 12.5 C 22.5000 %
355 17-12-2019 18:00:00 13.28333 C 21.0000 %
356 17-12-2019 19:00:00 12.26667 C 26.6667 %
357 17-12-2019 20:00:00 11.36667 C 32.6667 %
358 17-12-2019 21:00:00 10.81667 C 35.5000 %
359 17-12-2019 22:00:00 13.05 C 25.1667 %
360 17-12-2019 23:00:00 11.41667 C 29.8333 %
361 18-12-2019 00:00:00 10.7 C 32.3333 %
362 18-12-2019 01:00:00 10.83333 C 29.6667 %
363 18-12-2019 02:00:00 11.08333 C 29.8333 %
364 18-12-2019 03:00:00 10.23333 C 36.3333 %
365 18-12-2019 04:00:00 9.68333 C 35.1667 %
366 18-12-2019 05:00:00 8.7 C 35.3333 %
367 18-12-2019 06:00:00 7.81667 C 37.6667 %
368 18-12-2019 07:00:00 7.1 C 40.0000 %
369 18-12-2019 08:00:00 6.5 C 41.3333 %
370 18-12-2019 09:00:00 6.45 C 41.1667 %
371 18-12-2019 10:00:00 7.23333 C 38.0000 %
372 18-12-2019 11:00:00 6.9 C 37.6667 %
373 18-12-2019 12:00:00 8.41667 C 30.6667 %
374 18-12-2019 13:00:00 7.96667 C 31.3333 %
375 18-12-2019 14:00:00 7.45 C 34.1667 %
Sensor: Nr:Datum:Temp:Feuchte:
Aussen-T/F 376 18-12-2019 15:00:00 6.9 C 36.1667 %
377 18-12-2019 16:00:00 6.16667 C 36.6667 %
378 18-12-2019 17:00:00 4.65 C 40.8333 %
379 18-12-2019 18:00:00 4.33333 C 42.8333 %
380 18-12-2019 19:00:00 4.7 C 42.1667 %
381 18-12-2019 20:00:00 4.5 C 41.3333 %
382 18-12-2019 21:00:00 3.6 C 42.8333 %
383 18-12-2019 22:00:00 2.73333 C 43.0000 %
384 18-12-2019 23:00:00 2.16667 C 43.0000 %
385 19-12-2019 00:00:00 2.18333 C 43.3333 %
386 19-12-2019 01:00:00 1.98333 C 43.3333 %
387 19-12-2019 02:00:00 2.01667 C 43.1667 %
388 19-12-2019 03:00:00 1.65 C 44.0000 %
389 19-12-2019 04:00:00 1.51667 C 44.0000 %
390 19-12-2019 05:00:00 1.33333 C 44.0000 %
391 19-12-2019 06:00:00 1.01667 C 44.0000 %
392 19-12-2019 07:00:00 2.23333 C 43.3333 %
393 19-12-2019 08:00:00 4 C 41.5000 %
394 19-12-2019 09:00:00 4.33333 C 41.0000 %
395 19-12-2019 10:00:00 5.95 C 40.5000 %
396 19-12-2019 11:00:00 6.45 C 39.6667 %
397 19-12-2019 12:00:00 6.85 C 39.5000 %
398 19-12-2019 13:00:00 7.23333 C 38.5000 %
399 19-12-2019 14:00:00 7.31667 C 37.5000 %
400 19-12-2019 15:00:00 8.45 C 32.1667 %
Sensor: Nr:Datum:Temp:Feuchte:
Aussen-T/F 401 19-12-2019 16:00:00 8.08333 C 31.1667 %
402 19-12-2019 17:00:00 5.75 C 37.1667 %
403 19-12-2019 18:00:00 5.18333 C 41.6667 %
404 19-12-2019 19:00:00 5 C 41.0000 %
405 19-12-2019 20:00:00 5.31667 C 41.0000 %
406 19-12-2019 21:00:00 5.8 C 39.3333 %
407 19-12-2019 22:00:00 5.6 C 40.1667 %
408 19-12-2019 23:00:00 5.38333 C 42.0000 %
409 20-12-2019 00:00:00 4.01667 C 42.0000 %
410 20-12-2019 01:00:00 3.06667 C 43.1667 %
411 20-12-2019 02:00:00 3.05 C 44.0000 %
412 20-12-2019 03:00:00 4.48333 C 40.8333 %
413 20-12-2019 04:00:00 4.43333 C 40.6667 %
414 20-12-2019 05:00:00 5.23333 C 36.6667 %
415 20-12-2019 06:00:00 5.63333 C 33.3333 %
416 20-12-2019 07:00:00 6.15 C 31.1667 %
417 20-12-2019 08:00:00 6.5 C 31.1667 %
418 20-12-2019 09:00:00 6.51667 C 33.5000 %
419 20-12-2019 10:00:00 5.93333 C 37.1667 %
420 20-12-2019 11:00:00 6.4 C 41.5000 %
421 20-12-2019 12:00:00 7.6 C 38.8333 %
422 20-12-2019 13:00:00 8.35 C 37.3333 %
423 20-12-2019 14:00:00 8.56667 C 35.6667 %
424 20-12-2019 15:00:00 8.25 C 39.1667 %
425 20-12-2019 16:00:00 8.36667 C 40.6667 %
Sensor: Nr:Datum:Temp:Feuchte:
Aussen-T/F 426 20-12-2019 17:00:00 8.88333 C 38.3333 %
427 20-12-2019 18:00:00 9.13333 C 35.1667 %
428 20-12-2019 19:00:00 9.88333 C 28.6667 %
429 20-12-2019 20:00:00 9.25 C 27.6667 %
430 20-12-2019 21:00:00 8.55 C 27.6667 %
431 20-12-2019 22:00:00 8.56667 C 27.1667 %
432 20-12-2019 23:00:00 8.25 C 27.3333 %
433 21-12-2019 00:00:00 7.46667 C 29.3333 %
434 21-12-2019 01:00:00 7.31667 C 31.5000 %
435 21-12-2019 02:00:00 7.91667 C 29.5000 %
436 21-12-2019 03:00:00 7.31667 C 31.0000 %
437 21-12-2019 04:00:00 6.26667 C 37.0000 %
438 21-12-2019 05:00:00 5.46667 C 38.8333 %
439 21-12-2019 06:00:00 4.51667 C 40.8333 %
440 21-12-2019 07:00:00 3.33333 C 42.6667 %
441 21-12-2019 08:00:00 3.96667 C 43.3333 %
442 21-12-2019 09:00:00 4.58333 C 38.6667 %
443 21-12-2019 10:00:00 5.03333 C 37.0000 %
444 21-12-2019 11:00:00 5.58333 C 37.0000 %
445 21-12-2019 12:00:00 6.66667 C 33.6667 %
446 21-12-2019 13:00:00 7.45 C 29.5000 %
447 21-12-2019 14:00:00 8.46667 C 26.6667 %
448 21-12-2019 15:00:00 8.45 C 25.8333 %
449 21-12-2019 16:00:00 7.61667 C 28.5000 %
450 21-12-2019 17:00:00 7.31667 C 29.5000 %
Sensor: Nr:Datum:Temp:Feuchte:
Aussen-T/F 451 21-12-2019 18:00:00 7.65 C 26.1667 %
452 21-12-2019 19:00:00 7 C 28.0000 %
453 21-12-2019 20:00:00 7 C 26.6667 %
454 21-12-2019 21:00:00 5.98333 C 31.0000 %
455 21-12-2019 22:00:00 5.66667 C 30.1667 %
456 21-12-2019 23:00:00 6.23333 C 26.0000 %
457 22-12-2019 00:00:00 6.71667 C 26.8333 %
458 22-12-2019 01:00:00 5.83333 C 36.6667 %
459 22-12-2019 02:00:00 5.83333 C 37.0000 %
460 22-12-2019 03:00:00 6.16667 C 34.6667 %
461 22-12-2019 04:00:00 6.2 C 34.0000 %
462 22-12-2019 05:00:00 5.78333 C 36.1667 %
463 22-12-2019 06:00:00 5.46667 C 40.5000 %
464 22-12-2019 07:00:00 5.9 C 39.3333 %
465 22-12-2019 08:00:00 6.11667 C 40.3333 %
466 22-12-2019 09:00:00 6.45 C 38.8333 %
467 22-12-2019 10:00:00 8.36667 C 31.6667 %
468 22-12-2019 11:00:00 10.08333 C 26.3333 %
469 22-12-2019 12:00:00 10.7 C 25.5000 %
470 22-12-2019 13:00:00 10.8 C 25.0000 %
471 22-12-2019 14:00:00 10.88333 C 23.3333 %
472 22-12-2019 15:00:00 10.03333 C 25.3333 %
473 22-12-2019 16:00:00 8.73333 C 26.1667 %
474 22-12-2019 17:00:00 7.43333 C 29.1667 %
475 22-12-2019 18:00:00 7.28333 C 29.5000 %
Sensor: Nr:Datum:Temp:Feuchte:
Aussen-T/F 476 22-12-2019 19:00:00 7.28333 C 30.1667 %
477 22-12-2019 20:00:00 8.08333 C 25.5000 %
478 22-12-2019 21:00:00 7.93333 C 25.3333 %
479 22-12-2019 22:00:00 7.28333 C 27.0000 %
480 22-12-2019 23:00:00 6.53333 C 31.0000 %
481 23-12-2019 00:00:00 6.66667 C 31.0000 %
482 23-12-2019 01:00:00 7.13333 C 28.0000 %
483 23-12-2019 02:00:00 6.86667 C 29.1667 %
484 23-12-2019 03:00:00 6.71667 C 29.5000 %
485 23-12-2019 04:00:00 6.71667 C 30.1667 %
486 23-12-2019 05:00:00 6.76667 C 30.8333 %
487 23-12-2019 06:00:00 6.78333 C 31.6667 %
488 23-12-2019 07:00:00 7 C 31.1667 %
489 23-12-2019 08:00:00 7.48333 C 28.1667 %
490 23-12-2019 09:00:00 7.76667 C 26.8333 %
491 23-12-2019 10:00:00 7.06667 C 32.8333 %
492 23-12-2019 11:00:00 8.35 C 26.5000 %
493 23-12-2019 12:00:00 8.96667 C 25.1667 %
494 23-12-2019 13:00:00 8.28333 C 27.5000 %
495 23-12-2019 14:00:00 8.98333 C 25.5000 %
496 23-12-2019 15:00:00 8.95 C 25.1667 %
497 23-12-2019 16:00:00 8.55 C 25.1667 %
498 23-12-2019 17:00:00 8.01667 C 25.0000 %
499 23-12-2019 18:00:00 7.8 C 24.5000 %
500 23-12-2019 19:00:00 6.96667 C 27.3333 %
Sensor: Nr:Datum:Temp:Feuchte:
Aussen-T/F 501 23-12-2019 20:00:00 6.81667 C 29.6667 %
502 23-12-2019 21:00:00 6.75 C 30.0000 %
503 23-12-2019 22:00:00 5.68333 C 33.5000 %
504 23-12-2019 23:00:00 5.28333 C 32.3333 %
505 24-12-2019 00:00:00 5.91667 C 32.1667 %
506 24-12-2019 01:00:00 5.91667 C 31.3333 %
507 24-12-2019 02:00:00 5.78333 C 34.5000 %
508 24-12-2019 03:00:00 5.81667 C 30.6667 %
509 24-12-2019 04:00:00 5.05 C 37.5000 %
510 24-12-2019 05:00:00 4.96667 C 36.1667 %
511 24-12-2019 06:00:00 4.51667 C 38.1667 %
512 24-12-2019 07:00:00 5.36667 C 34.0000 %
513 24-12-2019 08:00:00 6.15 C 30.0000 %
514 24-12-2019 09:00:00 6.7 C 28.8333 %
515 24-12-2019 10:00:00 6.43333 C 33.5000 %
516 24-12-2019 11:00:00 7.56667 C 31.5000 %
517 24-12-2019 12:00:00 8.15 C 28.1667 %
518 24-12-2019 13:00:00 9.26667 C 25.5000 %
519 24-12-2019 14:00:00 9.45 C 25.5000 %
520 24-12-2019 15:00:00 9.83333 C 23.3333 %
521 24-12-2019 16:00:00 9.98333 C 20.1667 %
522 24-12-2019 17:00:00 9.33333 C 20.0000 %
523 24-12-2019 18:00:00 8.31667 C 27.5000 %
524 24-12-2019 19:00:00 6.8 C 34.8333 %
525 24-12-2019 20:00:00 7.15 C 31.3333 %
Sensor: Nr:Datum:Temp:Feuchte:
Aussen-T/F 526 24-12-2019 21:00:00 7.63333 C 29.6667 %
527 24-12-2019 22:00:00 8.33333 C 26.5000 %
528 24-12-2019 23:00:00 8.43333 C 27.0000 %
529 25-12-2019 00:00:00 8.31667 C 28.0000 %
530 25-12-2019 01:00:00 7.56667 C 33.8333 %
531 25-12-2019 02:00:00 7.88333 C 31.1667 %
532 25-12-2019 03:00:00 8.08333 C 30.6667 %
533 25-12-2019 04:00:00 7.91667 C 35.5000 %
534 25-12-2019 05:00:00 7.78333 C 36.3333 %
535 25-12-2019 06:00:00 7.26667 C 36.6667 %
536 25-12-2019 07:00:00 7 C 35.1667 %
537 25-12-2019 08:00:00 6.46667 C 32.0000 %
538 25-12-2019 09:00:00 7.08333 C 28.6667 %
539 25-12-2019 10:00:00 7.5 C 26.5000 %
540 25-12-2019 11:00:00 7.43333 C 26.5000 %
541 25-12-2019 12:00:00 7.56667 C 27.3333 %
542 25-12-2019 13:00:00 7 C 30.1667 %
543 25-12-2019 14:00:00 7.41667 C 29.3333 %
544 25-12-2019 15:00:00 7.2 C 30.6667 %
545 25-12-2019 16:00:00 6.9 C 31.8333 %
546 25-12-2019 17:00:00 6.31667 C 32.0000 %
547 25-12-2019 18:00:00 6.15 C 32.5000 %
548 25-12-2019 19:00:00 6 C 32.6667 %
549 25-12-2019 20:00:00 5.75 C 35.5000 %
550 25-12-2019 21:00:00 5.33333 C 41.0000 %
Sensor: Nr:Datum:Temp:Feuchte:
Aussen-T/F 551 25-12-2019 22:00:00 5.15 C 42.0000 %
552 25-12-2019 23:00:00 4.98333 C 42.0000 %
553 26-12-2019 00:00:00 4.01667 C 43.0000 %
554 26-12-2019 01:00:00 4.35 C 42.8333 %
555 26-12-2019 02:00:00 4.18333 C 42.0000 %
556 26-12-2019 03:00:00 4.08333 C 42.1667 %
557 26-12-2019 04:00:00 3.3 C 42.1667 %
558 26-12-2019 05:00:00 3.43333 C 43.0000 %
559 26-12-2019 06:00:00 3.55 C 43.0000 %
560 26-12-2019 07:00:00 3.43333 C 43.0000 %
561 26-12-2019 08:00:00 3.43333 C 43.0000 %
562 26-12-2019 09:00:00 3.51667 C 42.5000 %
563 26-12-2019 10:00:00 3.96667 C 41.5000 %
564 26-12-2019 11:00:00 5.16667 C 39.6667 %
565 26-12-2019 12:00:00 5.83333 C 35.5000 %
566 26-12-2019 13:00:00 5.8 C 36.1667 %
567 26-12-2019 14:00:00 5.8 C 35.3333 %
568 26-12-2019 15:00:00 5.1 C 37.5000 %
569 26-12-2019 16:00:00 4.48333 C 39.8333 %
570 26-12-2019 17:00:00 4.26667 C 40.0000 %
571 26-12-2019 18:00:00 4.06667 C 40.5000 %
572 26-12-2019 19:00:00 3.93333 C 40.8333 %
573 26-12-2019 20:00:00 4.01667 C 40.3333 %
574 26-12-2019 21:00:00 4.2 C 37.5000 %
575 26-12-2019 22:00:00 4.1 C 41.0000 %
Sensor: Nr:Datum:Temp:Feuchte:
Aussen-T/F 576 26-12-2019 23:00:00 4.03333 C 42.6667 %
577 27-12-2019 00:00:00 4.03333 C 42.0000 %
578 27-12-2019 01:00:00 4.1 C 42.0000 %
579 27-12-2019 02:00:00 4.11667 C 42.0000 %
580 27-12-2019 03:00:00 4.28333 C 42.0000 %
581 27-12-2019 04:00:00 4.31667 C 42.0000 %
582 27-12-2019 05:00:00 4.38333 C 42.0000 %
583 27-12-2019 06:00:00 4.4 C 42.0000 %
584 27-12-2019 07:00:00 4.4 C 42.0000 %
585 27-12-2019 08:00:00 4.3 C 42.0000 %
586 27-12-2019 09:00:00 4.5 C 41.8333 %
587 27-12-2019 10:00:00 4.88333 C 39.8333 %
588 27-12-2019 11:00:00 5.35 C 35.3333 %
589 27-12-2019 12:00:00 5.96667 C 31.0000 %
590 27-12-2019 13:00:00 5.7 C 30.6667 %
591 27-12-2019 14:00:00 5.93333 C 28.6667 %
592 27-12-2019 15:00:00 5.55 C 29.0000 %
593 27-12-2019 16:00:00 4.83333 C 33.3333 %
594 27-12-2019 17:00:00 4.48333 C 34.0000 %
595 27-12-2019 18:00:00 4.35 C 33.1667 %
596 27-12-2019 19:00:00 4.15 C 33.3333 %
597 27-12-2019 20:00:00 3.98333 C 32.0000 %
598 27-12-2019 21:00:00 3.93333 C 31.6667 %
599 27-12-2019 22:00:00 2.83333 C 33.0000 %
600 27-12-2019 23:00:00 1.1 C 40.3333 %
Sensor: Nr:Datum:Temp:Feuchte:
Aussen-T/F 601 28-12-2019 00:00:00 0.35 C 40.6667 %
602 28-12-2019 01:00:00 -0.45 C 42.5000 %
603 28-12-2019 02:00:00 -1.51667 C 44.6667 %
604 28-12-2019 03:00:00 -2.05 C 45.0000 %
605 28-12-2019 04:00:00 -2.36667 C 45.0000 %
606 28-12-2019 05:00:00 -2.45 C 44.6667 %
607 28-12-2019 06:00:00 -2.01667 C 43.8333 %
608 28-12-2019 07:00:00 -2.33333 C 43.0000 %
609 28-12-2019 08:00:00 -3 C 42.3333 %
610 28-12-2019 09:00:00 -2.41667 C 43.6667 %
611 28-12-2019 10:00:00 -1.36667 C 45.0000 %
612 28-12-2019 11:00:00 -0.58333 C 43.1667 %
613 28-12-2019 12:00:00 0.2 C 40.6667 %
614 28-12-2019 13:00:00 0.76667 C 40.0000 %
615 28-12-2019 14:00:00 0.65 C 40.3333 %
616 28-12-2019 15:00:00 0.38333 C 39.6667 %
617 28-12-2019 16:00:00 0.01667 C 38.5000 %
618 28-12-2019 17:00:00 -0.65 C 40.1667 %
619 28-12-2019 18:00:00 -1.06667 C 43.1667 %
620 28-12-2019 19:00:00 -1.73333 C 43.1667 %
621 28-12-2019 20:00:00 -1.43333 C 44.0000 %
622 28-12-2019 21:00:00 -1.56667 C 42.3333 %
623 28-12-2019 22:00:00 -2.2 C 42.0000 %
624 28-12-2019 23:00:00 -2.55 C 42.5000 %
625 29-12-2019 00:00:00 -3 C 42.8333 %
Sensor: Nr:Datum:Temp:Feuchte:
Aussen-T/F 626 29-12-2019 01:00:00 -3.38333 C 42.5000 %
627 29-12-2019 02:00:00 -3.66667 C 41.6667 %
628 29-12-2019 03:00:00 -4.03333 C 41.3333 %
629 29-12-2019 04:00:00 -4.15 C 41.1667 %
630 29-12-2019 05:00:00 -4.48333 C 41.0000 %
631 29-12-2019 06:00:00 -4.75 C 41.0000 %
632 29-12-2019 07:00:00 -4.78333 C 41.1667 %
633 29-12-2019 08:00:00 -4.25 C 41.5000 %
634 29-12-2019 09:00:00 -4.01667 C 41.3333 %
635 29-12-2019 10:00:00 -3.4 C 41.6667 %
636 29-12-2019 11:00:00 -1.3 C 42.5000 %
637 29-12-2019 12:00:00 0.08333 C 40.3333 %
638 29-12-2019 13:00:00 1.16667 C 37.1667 %
639 29-12-2019 14:00:00 1.8 C 35.3333 %
640 29-12-2019 15:00:00 1.73333 C 31.0000 %
641 29-12-2019 16:00:00 0.05 C 38.5000 %
642 29-12-2019 17:00:00 -0.23333 C 37.8333 %
643 29-12-2019 18:00:00 -0.21667 C 38.0000 %
644 29-12-2019 19:00:00 -0.75 C 37.0000 %
645 29-12-2019 20:00:00 -1.08333 C 36.6667 %
646 29-12-2019 21:00:00 -1.83333 C 40.0000 %
647 29-12-2019 22:00:00 -2.46667 C 42.6667 %
648 29-12-2019 23:00:00 -2.88333 C 43.0000 %
649 30-12-2019 00:00:00 -3.1 C 41.6667 %
650 30-12-2019 01:00:00 -3.25 C 42.5000 %
Sensor: Nr:Datum:Temp:Feuchte:
Aussen-T/F 651 30-12-2019 02:00:00 -3.36667 C 43.0000 %
652 30-12-2019 03:00:00 -3.3 C 43.0000 %
653 30-12-2019 04:00:00 -3.85 C 42.0000 %
654 30-12-2019 05:00:00 -3.85 C 42.3333 %
655 30-12-2019 06:00:00 -3.91667 C 42.1667 %
656 30-12-2019 07:00:00 -4.26667 C 41.6667 %
657 30-12-2019 08:00:00 -4.3 C 41.6667 %
658 30-12-2019 09:00:00 -3.8 C 42.1667 %
659 30-12-2019 10:00:00 -3.21667 C 42.3333 %
660 30-12-2019 11:00:00 -2.38333 C 41.6667 %
661 30-12-2019 12:00:00 -1.28333 C 40.0000 %
662 30-12-2019 13:00:00 -0.76667 C 40.6667 %
663 30-12-2019 14:00:00 0.51667 C 34.8333 %
664 30-12-2019 15:00:00 0.91667 C 34.5000 %
665 30-12-2019 16:00:00 1.28333 C 34.6667 %
666 30-12-2019 17:00:00 0.58333 C 39.5000 %
667 30-12-2019 18:00:00 -0.31667 C 35.8333 %
668 30-12-2019 19:00:00 -0.91667 C 35.3333 %
669 30-12-2019 20:00:00 -1.31667 C 34.5000 %
670 30-12-2019 21:00:00 -1.1 C 35.1667 %
671 30-12-2019 22:00:00 -1.83333 C 35.1667 %
672 30-12-2019 23:00:00 -1.15 C 32.8333 %
673 31-12-2019 00:00:00 -1.4 C 34.6667 %
674 31-12-2019 01:00:00 -1.58333 C 36.0000 %
675 31-12-2019 02:00:00 -2.65 C 41.6667 %
Sensor: Nr:Datum:Temp:Feuchte:
Aussen-T/F 676 31-12-2019 03:00:00 -2.38333 C 41.0000 %
677 31-12-2019 04:00:00 -3.11667 C 42.3333 %
678 31-12-2019 05:00:00 -3.21667 C 43.1667 %
679 31-12-2019 06:00:00 -3.25 C 43.1667 %
680 31-12-2019 07:00:00 -2.83333 C 44.3333 %
681 31-12-2019 08:00:00 -1.4 C 44.0000 %
682 31-12-2019 09:00:00 -1.01667 C 42.6667 %
683 31-12-2019 10:00:00 0.06667 C 41.0000 %
684 31-12-2019 11:00:00 1.13333 C 40.0000 %
685 31-12-2019 12:00:00 2.38333 C 31.6667 %
686 31-12-2019 13:00:00 2.76667 C 26.6667 %
687 31-12-2019 14:00:00 3.05 C 26.3333 %
688 31-12-2019 15:00:00 2.88333 C 27.5000 %
689 31-12-2019 16:00:00 0.71667 C 37.0000 %
690 31-12-2019 17:00:00 -0.4 C 41.5000 %
691 31-12-2019 18:00:00 -0.8 C 45.0000 %
692 31-12-2019 19:00:00 0.05 C 45.1667 %
693 31-12-2019 20:00:00 0.38333 C 44.3333 %
694 31-12-2019 21:00:00 0.43333 C 43.5000 %
695 31-12-2019 22:00:00 0.11667 C 41.8333 %
696 31-12-2019 23:00:00 0.05 C 44.8333 %
Sensor: Nr:Datum:Temp:Feuchte:
G-T/H 1 03-12-2019 00:00:00 8.4 C 72.0000 %
2 03-12-2019 01:00:00 8.48333 C 72.0000 %
3 03-12-2019 02:00:00 8.5 C 72.0000 %
4 03-12-2019 03:00:00 8.5 C 73.0000 %
5 03-12-2019 04:00:00 8.5 C 73.0000 %
6 03-12-2019 05:00:00 8.5 C 73.0000 %
7 03-12-2019 06:00:00 8.5 C 73.0000 %
8 03-12-2019 07:00:00 8.53333 C 73.0000 %
9 03-12-2019 08:00:00 8.6 C 73.0000 %
10 03-12-2019 09:00:00 8.6 C 73.0000 %
11 03-12-2019 10:00:00 8.61667 C 73.0000 %
12 03-12-2019 11:00:00 8.68333 C 73.1667 %
13 03-12-2019 12:00:00 8.71667 C 74.0000 %
14 03-12-2019 13:00:00 8.75 C 74.0000 %
15 03-12-2019 14:00:00 8.8 C 74.0000 %
16 03-12-2019 15:00:00 8.9 C 74.0000 %
17 03-12-2019 16:00:00 8.9 C 74.0000 %
18 03-12-2019 17:00:00 8.96667 C 74.0000 %
19 03-12-2019 18:00:00 9 C 74.0000 %
20 03-12-2019 19:00:00 9.03333 C 74.0000 %
21 03-12-2019 20:00:00 9.1 C 74.0000 %
22 03-12-2019 21:00:00 9.1 C 74.0000 %
23 03-12-2019 22:00:00 9.1 C 74.0000 %
24 03-12-2019 23:00:00 9.1 C 73.1667 %
25 04-12-2019 00:00:00 9.1 C 73.0000 %
Sensor: Nr:Datum:Temp:Feuchte:
G-T/H 26 04-12-2019 01:00:00 9.08333 C 73.0000 %
27 04-12-2019 02:00:00 9 C 72.1667 %
28 04-12-2019 03:00:00 9 C 72.0000 %
29 04-12-2019 04:00:00 8.93333 C 72.6667 %
30 04-12-2019 05:00:00 8.9 C 73.0000 %
31 04-12-2019 06:00:00 8.86667 C 73.0000 %
32 04-12-2019 07:00:00 8.83333 C 73.0000 %
33 04-12-2019 08:00:00 8.8 C 73.0000 %
34 04-12-2019 09:00:00 8.71667 C 73.0000 %
35 04-12-2019 10:00:00 8.7 C 72.5000 %
36 04-12-2019 11:00:00 8.7 C 72.0000 %
37 04-12-2019 12:00:00 8.7 C 72.0000 %
38 04-12-2019 13:00:00 8.7 C 72.0000 %
39 04-12-2019 14:00:00 8.65 C 72.0000 %
40 04-12-2019 15:00:00 8.61667 C 72.0000 %
41 04-12-2019 16:00:00 8.6 C 72.0000 %
42 04-12-2019 17:00:00 8.56667 C 72.0000 %
43 04-12-2019 18:00:00 8.5 C 72.0000 %
44 04-12-2019 19:00:00 8.41667 C 70.6667 %
45 04-12-2019 20:00:00 8.86667 C 70.3333 %
46 04-12-2019 21:00:00 9.01667 C 69.3333 %
47 04-12-2019 22:00:00 9 C 68.5000 %
48 04-12-2019 23:00:00 8.78333 C 69.0000 %
49 05-12-2019 00:00:00 8.61667 C 69.0000 %
50 05-12-2019 01:00:00 8.56667 C 69.0000 %
Sensor: Nr:Datum:Temp:Feuchte:
G-T/H 51 05-12-2019 02:00:00 8.46667 C 69.0000 %
52 05-12-2019 03:00:00 8.35 C 69.0000 %
53 05-12-2019 04:00:00 8.18333 C 69.0000 %
54 05-12-2019 05:00:00 8.06667 C 69.0000 %
55 05-12-2019 06:00:00 7.98333 C 69.1667 %
56 05-12-2019 07:00:00 7.76667 C 68.3333 %
57 05-12-2019 08:00:00 7.8 C 68.6667 %
58 05-12-2019 09:00:00 7.75 C 69.0000 %
59 05-12-2019 10:00:00 7.73333 C 69.0000 %
60 05-12-2019 11:00:00 7.7 C 69.0000 %
61 05-12-2019 12:00:00 7.68333 C 69.1667 %
62 05-12-2019 13:00:00 7.61667 C 70.0000 %
63 05-12-2019 14:00:00 7.6 C 70.0000 %
64 05-12-2019 15:00:00 7.61667 C 70.0000 %
65 05-12-2019 16:00:00 7.6 C 70.0000 %
66 05-12-2019 17:00:00 7.6 C 70.0000 %
67 05-12-2019 18:00:00 7.51667 C 69.3333 %
68 05-12-2019 19:00:00 7.95 C 69.1667 %
69 05-12-2019 20:00:00 8.1 C 68.8333 %
70 05-12-2019 21:00:00 8.03333 C 68.0000 %
71 05-12-2019 22:00:00 7.91667 C 68.8333 %
72 05-12-2019 23:00:00 7.86667 C 69.0000 %
73 06-12-2019 00:00:00 7.78333 C 68.8333 %
74 06-12-2019 01:00:00 7.71667 C 68.6667 %
75 06-12-2019 02:00:00 7.6 C 69.0000 %
Sensor: Nr:Datum:Temp:Feuchte:
G-T/H 76 06-12-2019 03:00:00 7.58333 C 69.0000 %
77 06-12-2019 04:00:00 7.5 C 69.0000 %
78 06-12-2019 05:00:00 7.4 C 69.0000 %
79 06-12-2019 06:00:00 7.4 C 69.0000 %
80 06-12-2019 07:00:00 7.31667 C 68.6667 %
81 06-12-2019 08:00:00 7.3 C 68.8333 %
82 06-12-2019 09:00:00 7.3 C 69.1667 %
83 06-12-2019 10:00:00 7.3 C 70.0000 %
84 06-12-2019 11:00:00 7.33333 C 70.0000 %
85 06-12-2019 12:00:00 7.38333 C 71.0000 %
86 06-12-2019 13:00:00 7.4 C 71.0000 %
87 06-12-2019 14:00:00 7.48333 C 71.3333 %
88 06-12-2019 15:00:00 7.5 C 72.0000 %
89 06-12-2019 16:00:00 7.56667 C 72.0000 %
90 06-12-2019 17:00:00 7.63333 C 72.0000 %
91 06-12-2019 18:00:00 7.73333 C 73.0000 %
92 06-12-2019 19:00:00 7.8 C 73.0000 %
93 06-12-2019 20:00:00 7.85 C 73.0000 %
94 06-12-2019 21:00:00 7.9 C 73.0000 %
95 06-12-2019 22:00:00 7.96667 C 73.1667 %
96 06-12-2019 23:00:00 8 C 73.1667 %
97 07-12-2019 00:00:00 8.13333 C 73.0000 %
98 07-12-2019 01:00:00 8.2 C 73.0000 %
99 07-12-2019 02:00:00 8.3 C 73.6667 %
100 07-12-2019 03:00:00 8.36667 C 74.0000 %
Sensor: Nr:Datum:Temp:Feuchte:
G-T/H 101 07-12-2019 04:00:00 8.41667 C 74.0000 %
102 07-12-2019 05:00:00 8.48333 C 74.0000 %
103 07-12-2019 06:00:00 8.56667 C 74.0000 %
104 07-12-2019 07:00:00 8.6 C 74.8333 %
105 07-12-2019 08:00:00 8.68333 C 75.0000 %
106 07-12-2019 09:00:00 8.75 C 75.0000 %
107 07-12-2019 10:00:00 8.81667 C 75.0000 %
108 07-12-2019 11:00:00 8.91667 C 74.8333 %
109 07-12-2019 12:00:00 9.18333 C 74.0000 %
110 07-12-2019 13:00:00 9.2 C 74.0000 %
111 07-12-2019 14:00:00 9.2 C 74.0000 %
112 07-12-2019 15:00:00 9.28333 C 74.5000 %
113 07-12-2019 16:00:00 9.3 C 75.0000 %
114 07-12-2019 17:00:00 9.38333 C 75.0000 %
115 07-12-2019 18:00:00 9.46667 C 75.0000 %
116 07-12-2019 19:00:00 9.51667 C 75.0000 %
117 07-12-2019 20:00:00 9.56667 C 75.0000 %
118 07-12-2019 21:00:00 9.6 C 75.0000 %
119 07-12-2019 22:00:00 9.65 C 75.0000 %
120 07-12-2019 23:00:00 9.7 C 75.0000 %
121 08-12-2019 00:00:00 9.7 C 75.0000 %
122 08-12-2019 01:00:00 9.78333 C 75.6667 %
123 08-12-2019 02:00:00 9.8 C 75.1667 %
124 08-12-2019 03:00:00 9.81667 C 75.3333 %
125 08-12-2019 04:00:00 9.88333 C 75.5000 %
Sensor: Nr:Datum:Temp:Feuchte:
G-T/H 126 08-12-2019 05:00:00 9.9 C 75.8333 %
127 08-12-2019 06:00:00 10 C 74.0000 %
128 08-12-2019 07:00:00 10 C 74.0000 %
129 08-12-2019 08:00:00 10.03333 C 74.0000 %
130 08-12-2019 09:00:00 10.1 C 74.0000 %
131 08-12-2019 10:00:00 10.11667 C 74.8333 %
132 08-12-2019 11:00:00 10.2 C 75.0000 %
133 08-12-2019 12:00:00 10.26667 C 75.0000 %
134 08-12-2019 13:00:00 10.33333 C 75.0000 %
135 08-12-2019 14:00:00 10.4 C 75.0000 %
136 08-12-2019 15:00:00 10.5 C 75.0000 %
137 08-12-2019 16:00:00 10.6 C 75.5000 %
138 08-12-2019 17:00:00 10.6 C 76.0000 %
139 08-12-2019 18:00:00 10.63333 C 76.0000 %
140 08-12-2019 19:00:00 10.7 C 76.0000 %
141 08-12-2019 20:00:00 10.7 C 76.0000 %
142 08-12-2019 21:00:00 10.7 C 76.0000 %
143 08-12-2019 22:00:00 10.7 C 75.1667 %
144 08-12-2019 23:00:00 10.7 C 75.0000 %
145 09-12-2019 00:00:00 10.7 C 75.0000 %
146 09-12-2019 01:00:00 10.7 C 75.0000 %
147 09-12-2019 02:00:00 10.7 C 75.0000 %
148 09-12-2019 03:00:00 10.61667 C 74.1667 %
149 09-12-2019 04:00:00 10.6 C 74.0000 %
150 09-12-2019 05:00:00 10.56667 C 74.0000 %
Sensor: Nr:Datum:Temp:Feuchte:
G-T/H 151 09-12-2019 06:00:00 10.5 C 74.0000 %
152 09-12-2019 07:00:00 10.48333 C 74.0000 %
153 09-12-2019 08:00:00 10.45 C 74.0000 %
154 09-12-2019 09:00:00 10.4 C 74.0000 %
155 09-12-2019 10:00:00 10.4 C 74.0000 %
156 09-12-2019 11:00:00 10.4 C 74.0000 %
157 09-12-2019 12:00:00 10.4 C 74.0000 %
158 09-12-2019 13:00:00 10.4 C 74.0000 %
159 09-12-2019 14:00:00 10.41667 C 74.0000 %
160 09-12-2019 15:00:00 10.48333 C 74.0000 %
161 09-12-2019 16:00:00 10.48333 C 74.0000 %
162 09-12-2019 17:00:00 10.48333 C 74.0000 %
163 09-12-2019 18:00:00 10.5 C 74.0000 %
164 09-12-2019 19:00:00 10.48333 C 74.0000 %
165 09-12-2019 20:00:00 10.41667 C 74.0000 %
166 09-12-2019 21:00:00 10.4 C 74.0000 %
167 09-12-2019 22:00:00 10.38333 C 74.0000 %
168 09-12-2019 23:00:00 10.25 C 73.5000 %
169 10-12-2019 00:00:00 10.15 C 72.1667 %
170 10-12-2019 01:00:00 10.05 C 71.1667 %
171 10-12-2019 02:00:00 9.91667 C 71.3333 %
172 10-12-2019 03:00:00 9.78333 C 71.0000 %
173 10-12-2019 04:00:00 9.7 C 71.0000 %
174 10-12-2019 05:00:00 9.7 C 71.0000 %
175 10-12-2019 06:00:00 9.63333 C 71.0000 %
Sensor: Nr:Datum:Temp:Feuchte:
G-T/H 176 10-12-2019 07:00:00 9.6 C 72.0000 %
177 10-12-2019 08:00:00 9.46667 C 71.0000 %
178 10-12-2019 09:00:00 9.4 C 71.0000 %
179 10-12-2019 10:00:00 9.33333 C 71.0000 %
180 10-12-2019 11:00:00 9.28333 C 71.0000 %
181 10-12-2019 12:00:00 9.23333 C 72.0000 %
182 10-12-2019 13:00:00 9.2 C 72.0000 %
183 10-12-2019 14:00:00 9.16667 C 72.0000 %
184 10-12-2019 15:00:00 9.1 C 72.0000 %
185 10-12-2019 16:00:00 9.1 C 72.0000 %
186 10-12-2019 17:00:00 9.05 C 71.6667 %
187 10-12-2019 18:00:00 8.96667 C 71.3333 %
188 10-12-2019 19:00:00 8.91667 C 71.8333 %
189 10-12-2019 20:00:00 8.9 C 72.0000 %
190 10-12-2019 21:00:00 8.9 C 72.0000 %
191 10-12-2019 22:00:00 8.81667 C 72.0000 %
192 10-12-2019 23:00:00 8.8 C 72.6667 %
193 11-12-2019 00:00:00 8.8 C 73.0000 %
194 11-12-2019 01:00:00 8.8 C 73.0000 %
195 11-12-2019 02:00:00 8.8 C 73.0000 %
196 11-12-2019 03:00:00 8.78333 C 73.0000 %
197 11-12-2019 04:00:00 8.75 C 73.0000 %
198 11-12-2019 05:00:00 8.75 C 73.0000 %
199 11-12-2019 06:00:00 8.71667 C 73.0000 %
200 11-12-2019 07:00:00 8.7 C 73.0000 %
Sensor: Nr:Datum:Temp:Feuchte:
G-T/H 201 11-12-2019 08:00:00 8.7 C 73.0000 %
202 11-12-2019 09:00:00 8.73333 C 73.0000 %
203 11-12-2019 10:00:00 8.73333 C 73.0000 %
204 11-12-2019 11:00:00 8.71667 C 73.0000 %
205 11-12-2019 12:00:00 8.7 C 73.0000 %
206 11-12-2019 13:00:00 8.7 C 73.0000 %
207 11-12-2019 14:00:00 8.7 C 73.0000 %
208 11-12-2019 15:00:00 8.7 C 73.0000 %
209 11-12-2019 16:00:00 8.7 C 73.0000 %
210 11-12-2019 17:00:00 8.71667 C 73.0000 %
211 11-12-2019 18:00:00 8.73333 C 73.0000 %
212 11-12-2019 19:00:00 8.8 C 73.0000 %
213 11-12-2019 20:00:00 8.81667 C 73.0000 %
214 11-12-2019 21:00:00 8.86667 C 74.0000 %
215 11-12-2019 22:00:00 8.86667 C 74.0000 %
216 11-12-2019 23:00:00 8.88333 C 74.0000 %
217 12-12-2019 00:00:00 8.85 C 74.0000 %
218 12-12-2019 01:00:00 8.8 C 74.0000 %
219 12-12-2019 02:00:00 8.8 C 73.5000 %
220 12-12-2019 03:00:00 8.8 C 73.0000 %
221 12-12-2019 04:00:00 8.8 C 73.0000 %
222 12-12-2019 05:00:00 8.78333 C 73.0000 %
223 12-12-2019 06:00:00 8.7 C 73.0000 %
224 12-12-2019 07:00:00 8.7 C 73.0000 %
225 12-12-2019 08:00:00 8.7 C 73.6667 %
Sensor: Nr:Datum:Temp:Feuchte:
G-T/H 226 12-12-2019 09:00:00 8.7 C 74.0000 %
227 12-12-2019 10:00:00 8.7 C 74.0000 %
228 12-12-2019 11:00:00 8.71667 C 74.0000 %
229 12-12-2019 12:00:00 8.75 C 74.0000 %
230 12-12-2019 13:00:00 8.8 C 74.0000 %
231 12-12-2019 14:00:00 8.8 C 74.0000 %
232 12-12-2019 15:00:00 8.8 C 74.0000 %
233 12-12-2019 16:00:00 8.8 C 74.0000 %
234 12-12-2019 17:00:00 8.78333 C 74.0000 %
235 12-12-2019 18:00:00 8.73333 C 73.3333 %
236 12-12-2019 19:00:00 8.76667 C 72.0000 %
237 12-12-2019 20:00:00 9.06667 C 72.0000 %
238 12-12-2019 21:00:00 9.1 C 71.8333 %
239 12-12-2019 22:00:00 9.06667 C 71.0000 %
240 12-12-2019 23:00:00 8.93333 C 71.6667 %
241 13-12-2019 00:00:00 8.9 C 72.0000 %
242 13-12-2019 01:00:00 8.8 C 72.0000 %
243 13-12-2019 02:00:00 8.76667 C 72.0000 %
244 13-12-2019 03:00:00 8.66667 C 72.0000 %
245 13-12-2019 04:00:00 8.6 C 72.0000 %
246 13-12-2019 05:00:00 8.6 C 72.0000 %
247 13-12-2019 06:00:00 8.5 C 72.0000 %
248 13-12-2019 07:00:00 8.45 C 71.8333 %
249 13-12-2019 08:00:00 8.4 C 71.6667 %
250 13-12-2019 09:00:00 8.4 C 72.0000 %
Sensor: Nr:Datum:Temp:Feuchte:
G-T/H 251 13-12-2019 10:00:00 8.4 C 72.0000 %
252 13-12-2019 11:00:00 8.4 C 72.0000 %
253 13-12-2019 12:00:00 8.4 C 72.6667 %
254 13-12-2019 13:00:00 8.45 C 73.0000 %
255 13-12-2019 14:00:00 8.5 C 73.0000 %
256 13-12-2019 15:00:00 8.46667 C 73.0000 %
257 13-12-2019 16:00:00 8.31667 C 71.5000 %
258 13-12-2019 17:00:00 8.2 C 70.0000 %
259 13-12-2019 18:00:00 8.4 C 71.0000 %
260 13-12-2019 19:00:00 8.5 C 72.0000 %
261 13-12-2019 20:00:00 8.55 C 72.8333 %
262 13-12-2019 21:00:00 8.6 C 73.0000 %
263 13-12-2019 22:00:00 8.6 C 73.0000 %
264 13-12-2019 23:00:00 8.6 C 73.0000 %
265 14-12-2019 00:00:00 8.68333 C 73.0000 %
266 14-12-2019 01:00:00 8.68333 C 73.8333 %
267 14-12-2019 02:00:00 8.7 C 74.0000 %
268 14-12-2019 03:00:00 8.7 C 74.0000 %
269 14-12-2019 04:00:00 8.7 C 74.0000 %
270 14-12-2019 05:00:00 8.7 C 74.0000 %
271 14-12-2019 06:00:00 8.7 C 74.0000 %
272 14-12-2019 07:00:00 8.8 C 74.0000 %
273 14-12-2019 08:00:00 8.8 C 74.0000 %
274 14-12-2019 09:00:00 8.8 C 74.0000 %
275 14-12-2019 10:00:00 8.83333 C 74.0000 %
Sensor: Nr:Datum:Temp:Feuchte:
G-T/H 276 14-12-2019 11:00:00 8.91667 C 73.8333 %
277 14-12-2019 12:00:00 8.98333 C 70.6667 %
278 14-12-2019 13:00:00 8.91667 C 69.6667 %
279 14-12-2019 14:00:00 8.98333 C 70.8333 %
280 14-12-2019 15:00:00 9 C 71.6667 %
281 14-12-2019 16:00:00 9.08333 C 72.0000 %
282 14-12-2019 17:00:00 9.08333 C 72.8333 %
283 14-12-2019 18:00:00 9.11667 C 73.0000 %
284 14-12-2019 19:00:00 9.15 C 73.0000 %
285 14-12-2019 20:00:00 9.18333 C 73.0000 %
286 14-12-2019 21:00:00 9.2 C 73.0000 %
287 14-12-2019 22:00:00 9.2 C 73.5000 %
288 14-12-2019 23:00:00 9.2 C 74.0000 %
289 15-12-2019 00:00:00 9.2 C 74.0000 %
290 15-12-2019 01:00:00 9.2 C 74.0000 %
291 15-12-2019 02:00:00 9.25 C 74.0000 %
292 15-12-2019 03:00:00 9.28333 C 74.0000 %
293 15-12-2019 04:00:00 9.28333 C 74.0000 %
294 15-12-2019 05:00:00 9.3 C 74.0000 %
295 15-12-2019 06:00:00 9.38333 C 74.0000 %
296 15-12-2019 07:00:00 9.46667 C 74.8333 %
297 15-12-2019 08:00:00 9.5 C 75.0000 %
298 15-12-2019 09:00:00 9.53333 C 75.0000 %
299 15-12-2019 10:00:00 9.6 C 75.0000 %
300 15-12-2019 11:00:00 9.6 C 75.0000 %
Sensor: Nr:Datum:Temp:Feuchte:
G-T/H 301 15-12-2019 12:00:00 9.65 C 75.0000 %
302 15-12-2019 13:00:00 9.7 C 75.0000 %
303 15-12-2019 14:00:00 9.71667 C 75.0000 %
304 15-12-2019 15:00:00 9.75 C 75.0000 %
305 15-12-2019 16:00:00 9.8 C 75.0000 %
306 15-12-2019 17:00:00 9.8 C 75.0000 %
307 15-12-2019 18:00:00 9.8 C 75.0000 %
308 15-12-2019 19:00:00 9.8 C 75.0000 %
309 15-12-2019 20:00:00 9.8 C 75.0000 %
310 15-12-2019 21:00:00 9.8 C 75.0000 %
311 15-12-2019 22:00:00 9.7 C 75.0000 %
312 15-12-2019 23:00:00 9.7 C 74.1667 %
313 16-12-2019 00:00:00 9.7 C 74.0000 %
314 16-12-2019 01:00:00 9.7 C 74.3333 %
315 16-12-2019 02:00:00 9.7 C 75.0000 %
316 16-12-2019 03:00:00 9.68333 C 75.0000 %
317 16-12-2019 04:00:00 9.7 C 75.0000 %
318 16-12-2019 05:00:00 9.7 C 75.0000 %
319 16-12-2019 06:00:00 9.7 C 75.0000 %
320 16-12-2019 07:00:00 9.7 C 75.0000 %
321 16-12-2019 08:00:00 9.7 C 75.0000 %
322 16-12-2019 09:00:00 9.75 C 75.8333 %
323 16-12-2019 10:00:00 9.78333 C 76.0000 %
324 16-12-2019 11:00:00 9.8 C 76.0000 %
325 16-12-2019 12:00:00 9.83333 C 76.0000 %
Sensor: Nr:Datum:Temp:Feuchte:
G-T/H 326 16-12-2019 13:00:00 9.9 C 76.0000 %
327 16-12-2019 14:00:00 9.98333 C 75.1667 %
328 16-12-2019 15:00:00 10.01667 C 75.0000 %
329 16-12-2019 16:00:00 10.1 C 75.0000 %
330 16-12-2019 17:00:00 10.1 C 75.0000 %
331 16-12-2019 18:00:00 10.13333 C 75.0000 %
332 16-12-2019 19:00:00 10.2 C 75.0000 %
333 16-12-2019 20:00:00 10.2 C 75.0000 %
334 16-12-2019 21:00:00 10.21667 C 75.0000 %
335 16-12-2019 22:00:00 10.21667 C 75.0000 %
336 16-12-2019 23:00:00 10.2 C 75.0000 %
337 17-12-2019 00:00:00 10.23333 C 75.0000 %
338 17-12-2019 01:00:00 10.23333 C 75.0000 %
339 17-12-2019 02:00:00 10.25 C 75.0000 %
340 17-12-2019 03:00:00 10.23333 C 75.0000 %
341 17-12-2019 04:00:00 10.26667 C 75.0000 %
342 17-12-2019 05:00:00 10.26667 C 75.0000 %
343 17-12-2019 06:00:00 10.26667 C 75.0000 %
344 17-12-2019 07:00:00 10.28333 C 75.0000 %
345 17-12-2019 08:00:00 10.28333 C 75.0000 %
346 17-12-2019 09:00:00 10.3 C 75.0000 %
347 17-12-2019 10:00:00 10.26667 C 75.0000 %
348 17-12-2019 11:00:00 10.3 C 75.0000 %
349 17-12-2019 12:00:00 10.3 C 75.0000 %
350 17-12-2019 13:00:00 10.3 C 75.6667 %
Sensor: Nr:Datum:Temp:Feuchte:
G-T/H 351 17-12-2019 14:00:00 10.35 C 76.0000 %
352 17-12-2019 15:00:00 10.4 C 76.0000 %
353 17-12-2019 16:00:00 10.4 C 76.0000 %
354 17-12-2019 17:00:00 10.43333 C 76.0000 %
355 17-12-2019 18:00:00 10.61667 C 76.0000 %
356 17-12-2019 19:00:00 10.98333 C 75.6667 %
357 17-12-2019 20:00:00 10.81667 C 76.0000 %
358 17-12-2019 21:00:00 10.81667 C 76.0000 %
359 17-12-2019 22:00:00 10.88333 C 76.0000 %
360 17-12-2019 23:00:00 10.91667 C 76.6667 %
361 18-12-2019 00:00:00 11 C 76.0000 %
362 18-12-2019 01:00:00 11 C 76.0000 %
363 18-12-2019 02:00:00 11.03333 C 76.0000 %
364 18-12-2019 03:00:00 11.08333 C 76.0000 %
365 18-12-2019 04:00:00 11.1 C 76.0000 %
366 18-12-2019 05:00:00 11.1 C 76.0000 %
367 18-12-2019 06:00:00 11.1 C 76.0000 %
368 18-12-2019 07:00:00 11.1 C 76.0000 %
369 18-12-2019 08:00:00 11.1 C 76.0000 %
370 18-12-2019 09:00:00 11.1 C 76.0000 %
371 18-12-2019 10:00:00 11.1 C 76.0000 %
372 18-12-2019 11:00:00 11.06667 C 76.0000 %
373 18-12-2019 12:00:00 11.08333 C 76.0000 %
374 18-12-2019 13:00:00 11.01667 C 76.0000 %
375 18-12-2019 14:00:00 10.98333 C 75.3333 %
Sensor: Nr:Datum:Temp:Feuchte:
G-T/H 376 18-12-2019 15:00:00 10.98333 C 75.1667 %
377 18-12-2019 16:00:00 10.88333 C 76.0000 %
378 18-12-2019 17:00:00 10.8 C 75.1667 %
379 18-12-2019 18:00:00 10.76667 C 75.0000 %
380 18-12-2019 19:00:00 10.7 C 75.0000 %
381 18-12-2019 20:00:00 10.7 C 75.0000 %
382 18-12-2019 21:00:00 10.6 C 74.0000 %
383 18-12-2019 22:00:00 10.45 C 74.0000 %
384 18-12-2019 23:00:00 10.35 C 73.0000 %
385 19-12-2019 00:00:00 10.2 C 72.5000 %
386 19-12-2019 01:00:00 10.13333 C 72.0000 %
387 19-12-2019 02:00:00 10.03333 C 72.0000 %
388 19-12-2019 03:00:00 9.95 C 71.5000 %
389 19-12-2019 04:00:00 9.9 C 72.0000 %
390 19-12-2019 05:00:00 9.86667 C 72.8333 %
391 19-12-2019 06:00:00 9.8 C 73.0000 %
392 19-12-2019 07:00:00 9.78333 C 73.0000 %
393 19-12-2019 08:00:00 9.71667 C 73.0000 %
394 19-12-2019 09:00:00 9.7 C 73.0000 %
395 19-12-2019 10:00:00 9.66667 C 73.0000 %
396 19-12-2019 11:00:00 9.66667 C 74.0000 %
397 19-12-2019 12:00:00 9.63333 C 74.0000 %
398 19-12-2019 13:00:00 9.6 C 74.0000 %
399 19-12-2019 14:00:00 9.63333 C 74.0000 %
400 19-12-2019 15:00:00 9.63333 C 74.1667 %
Sensor: Nr:Datum:Temp:Feuchte:
G-T/H 401 19-12-2019 16:00:00 9.66667 C 75.0000 %
402 19-12-2019 17:00:00 9.7 C 75.0000 %
403 19-12-2019 18:00:00 9.7 C 75.0000 %
404 19-12-2019 19:00:00 9.68333 C 75.0000 %
405 19-12-2019 20:00:00 9.7 C 75.0000 %
406 19-12-2019 21:00:00 9.7 C 75.0000 %
407 19-12-2019 22:00:00 9.65 C 75.0000 %
408 19-12-2019 23:00:00 9.68333 C 75.0000 %
409 20-12-2019 00:00:00 9.65 C 75.0000 %
410 20-12-2019 01:00:00 9.61667 C 74.8333 %
411 20-12-2019 02:00:00 9.6 C 74.0000 %
412 20-12-2019 03:00:00 9.6 C 74.0000 %
413 20-12-2019 04:00:00 9.58333 C 74.0000 %
414 20-12-2019 05:00:00 9.55 C 74.0000 %
415 20-12-2019 06:00:00 9.51667 C 74.0000 %
416 20-12-2019 07:00:00 9.51667 C 74.0000 %
417 20-12-2019 08:00:00 9.5 C 74.5000 %
418 20-12-2019 09:00:00 9.51667 C 75.0000 %
419 20-12-2019 10:00:00 9.53333 C 75.0000 %
420 20-12-2019 11:00:00 9.58333 C 75.0000 %
421 20-12-2019 12:00:00 9.55 C 75.0000 %
422 20-12-2019 13:00:00 9.6 C 75.0000 %
423 20-12-2019 14:00:00 9.63333 C 75.8333 %
424 20-12-2019 15:00:00 9.7 C 76.0000 %
425 20-12-2019 16:00:00 9.71667 C 76.0000 %
Sensor: Nr:Datum:Temp:Feuchte:
G-T/H 426 20-12-2019 17:00:00 9.8 C 76.0000 %
427 20-12-2019 18:00:00 9.85 C 76.0000 %
428 20-12-2019 19:00:00 9.9 C 76.6667 %
429 20-12-2019 20:00:00 9.96667 C 75.6667 %
430 20-12-2019 21:00:00 10 C 75.0000 %
431 20-12-2019 22:00:00 10.08333 C 75.0000 %
432 20-12-2019 23:00:00 10.08333 C 75.0000 %
433 21-12-2019 00:00:00 10.1 C 75.0000 %
434 21-12-2019 01:00:00 10.1 C 75.0000 %
435 21-12-2019 02:00:00 10.16667 C 75.0000 %
436 21-12-2019 03:00:00 10.2 C 75.0000 %
437 21-12-2019 04:00:00 10.2 C 75.0000 %
438 21-12-2019 05:00:00 10.2 C 75.0000 %
439 21-12-2019 06:00:00 10.16667 C 75.0000 %
440 21-12-2019 07:00:00 10.1 C 75.0000 %
441 21-12-2019 08:00:00 10.1 C 74.0000 %
442 21-12-2019 09:00:00 10.08333 C 74.0000 %
443 21-12-2019 10:00:00 10 C 74.0000 %
444 21-12-2019 11:00:00 10.01667 C 74.0000 %
445 21-12-2019 12:00:00 10.11667 C 74.0000 %
446 21-12-2019 13:00:00 10.01667 C 74.0000 %
447 21-12-2019 14:00:00 10 C 74.0000 %
448 21-12-2019 15:00:00 10 C 74.0000 %
449 21-12-2019 16:00:00 9.98333 C 74.3333 %
450 21-12-2019 17:00:00 10 C 74.8333 %
Sensor: Nr:Datum:Temp:Feuchte:
G-T/H 451 21-12-2019 18:00:00 10 C 75.0000 %
452 21-12-2019 19:00:00 10 C 75.0000 %
453 21-12-2019 20:00:00 10 C 75.0000 %
454 21-12-2019 21:00:00 10 C 75.0000 %
455 21-12-2019 22:00:00 10 C 74.8333 %
456 21-12-2019 23:00:00 10 C 74.0000 %
457 22-12-2019 00:00:00 10 C 74.0000 %
458 22-12-2019 01:00:00 10 C 74.0000 %
459 22-12-2019 02:00:00 10 C 74.0000 %
460 22-12-2019 03:00:00 10 C 74.0000 %
461 22-12-2019 04:00:00 10 C 74.8333 %
462 22-12-2019 05:00:00 10 C 75.0000 %
463 22-12-2019 06:00:00 10 C 75.0000 %
464 22-12-2019 07:00:00 10 C 75.0000 %
465 22-12-2019 08:00:00 10 C 75.0000 %
466 22-12-2019 09:00:00 10 C 75.0000 %
467 22-12-2019 10:00:00 10 C 75.0000 %
468 22-12-2019 11:00:00 10 C 75.0000 %
469 22-12-2019 12:00:00 10.05 C 75.0000 %
470 22-12-2019 13:00:00 10.1 C 75.0000 %
471 22-12-2019 14:00:00 10.1 C 75.0000 %
472 22-12-2019 15:00:00 10.2 C 76.0000 %
473 22-12-2019 16:00:00 10.23333 C 76.0000 %
474 22-12-2019 17:00:00 10.3 C 76.0000 %
475 22-12-2019 18:00:00 10.31667 C 76.0000 %
Sensor: Nr:Datum:Temp:Feuchte:
G-T/H 476 22-12-2019 19:00:00 10.4 C 76.0000 %
477 22-12-2019 20:00:00 10.4 C 76.0000 %
478 22-12-2019 21:00:00 10.4 C 76.0000 %
479 22-12-2019 22:00:00 10.4 C 75.8333 %
480 22-12-2019 23:00:00 10.4 C 75.0000 %
481 23-12-2019 00:00:00 10.4 C 75.0000 %
482 23-12-2019 01:00:00 10.4 C 75.0000 %
483 23-12-2019 02:00:00 10.33333 C 75.0000 %
484 23-12-2019 03:00:00 10.3 C 75.0000 %
485 23-12-2019 04:00:00 10.3 C 75.0000 %
486 23-12-2019 05:00:00 10.25 C 75.0000 %
487 23-12-2019 06:00:00 10.2 C 75.0000 %
488 23-12-2019 07:00:00 10.2 C 75.0000 %
489 23-12-2019 08:00:00 10.2 C 75.0000 %
490 23-12-2019 09:00:00 10.2 C 75.0000 %
491 23-12-2019 10:00:00 10.2 C 75.0000 %
492 23-12-2019 11:00:00 10.2 C 75.0000 %
493 23-12-2019 12:00:00 10.23333 C 75.0000 %
494 23-12-2019 13:00:00 10.3 C 75.6667 %
495 23-12-2019 14:00:00 10.3 C 76.0000 %
496 23-12-2019 15:00:00 10.3 C 76.0000 %
497 23-12-2019 16:00:00 10.33333 C 75.6667 %
498 23-12-2019 17:00:00 10.4 C 76.0000 %
499 23-12-2019 18:00:00 10.4 C 76.0000 %
500 23-12-2019 19:00:00 10.4 C 76.0000 %
Sensor: Nr:Datum:Temp:Feuchte:
G-T/H 501 23-12-2019 20:00:00 10.4 C 76.0000 %
502 23-12-2019 21:00:00 10.4 C 76.0000 %
503 23-12-2019 22:00:00 10.33333 C 75.5000 %
504 23-12-2019 23:00:00 10.31667 C 75.0000 %
505 24-12-2019 00:00:00 10.3 C 75.0000 %
506 24-12-2019 01:00:00 10.26667 C 75.0000 %
507 24-12-2019 02:00:00 10.2 C 75.0000 %
508 24-12-2019 03:00:00 10.2 C 75.0000 %
509 24-12-2019 04:00:00 10.18333 C 75.0000 %
510 24-12-2019 05:00:00 10.11667 C 75.0000 %
511 24-12-2019 06:00:00 10.08333 C 74.6667 %
512 24-12-2019 07:00:00 10.1 C 74.0000 %
513 24-12-2019 08:00:00 10.03333 C 74.0000 %
514 24-12-2019 09:00:00 10 C 74.5000 %
515 24-12-2019 10:00:00 10 C 75.0000 %
516 24-12-2019 11:00:00 10 C 75.0000 %
517 24-12-2019 12:00:00 10 C 75.0000 %
518 24-12-2019 13:00:00 10.03333 C 75.0000 %
519 24-12-2019 14:00:00 10.06667 C 75.0000 %
520 24-12-2019 15:00:00 10.08333 C 75.0000 %
521 24-12-2019 16:00:00 10.1 C 75.0000 %
522 24-12-2019 17:00:00 10.11667 C 75.0000 %
523 24-12-2019 18:00:00 10.2 C 75.0000 %
524 24-12-2019 19:00:00 10.2 C 75.1667 %
525 24-12-2019 20:00:00 10.16667 C 75.0000 %
Sensor: Nr:Datum:Temp:Feuchte:
G-T/H 526 24-12-2019 21:00:00 10.2 C 75.0000 %
527 24-12-2019 22:00:00 10.18333 C 75.1667 %
528 24-12-2019 23:00:00 10.2 C 76.0000 %
529 25-12-2019 00:00:00 10.2 C 76.0000 %
530 25-12-2019 01:00:00 10.2 C 76.0000 %
531 25-12-2019 02:00:00 10.2 C 76.0000 %
532 25-12-2019 03:00:00 10.2 C 76.0000 %
533 25-12-2019 04:00:00 10.2 C 76.0000 %
534 25-12-2019 05:00:00 10.2 C 76.0000 %
535 25-12-2019 06:00:00 10.2 C 76.0000 %
536 25-12-2019 07:00:00 10.2 C 76.0000 %
537 25-12-2019 08:00:00 10.2 C 76.0000 %
538 25-12-2019 09:00:00 10.2 C 76.0000 %
539 25-12-2019 10:00:00 10.21667 C 76.0000 %
540 25-12-2019 11:00:00 10.26667 C 76.0000 %
541 25-12-2019 12:00:00 10.26667 C 76.0000 %
542 25-12-2019 13:00:00 10.25 C 76.0000 %
543 25-12-2019 14:00:00 10.3 C 76.0000 %
544 25-12-2019 15:00:00 10.28333 C 76.0000 %
545 25-12-2019 16:00:00 10.3 C 76.0000 %
546 25-12-2019 17:00:00 10.3 C 76.0000 %
547 25-12-2019 18:00:00 10.3 C 76.0000 %
548 25-12-2019 19:00:00 10.3 C 76.0000 %
549 25-12-2019 20:00:00 10.3 C 76.0000 %
550 25-12-2019 21:00:00 10.28333 C 76.0000 %
Sensor: Nr:Datum:Temp:Feuchte:
G-T/H 551 25-12-2019 22:00:00 10.28333 C 76.0000 %
552 25-12-2019 23:00:00 10.21667 C 75.1667 %
553 26-12-2019 00:00:00 10.2 C 75.0000 %
554 26-12-2019 01:00:00 10.2 C 75.0000 %
555 26-12-2019 02:00:00 10.15 C 75.0000 %
556 26-12-2019 03:00:00 10.15 C 75.0000 %
557 26-12-2019 04:00:00 10.08333 C 75.0000 %
558 26-12-2019 05:00:00 10.01667 C 74.1667 %
559 26-12-2019 06:00:00 10 C 74.0000 %
560 26-12-2019 07:00:00 10 C 74.0000 %
561 26-12-2019 08:00:00 9.9 C 75.0000 %
562 26-12-2019 09:00:00 9.9 C 75.0000 %
563 26-12-2019 10:00:00 9.9 C 75.0000 %
564 26-12-2019 11:00:00 9.9 C 75.0000 %
565 26-12-2019 12:00:00 9.9 C 75.3333 %
566 26-12-2019 13:00:00 9.86667 C 76.0000 %
567 26-12-2019 14:00:00 9.86667 C 76.0000 %
568 26-12-2019 15:00:00 9.85 C 76.0000 %
569 26-12-2019 16:00:00 9.81667 C 76.0000 %
570 26-12-2019 17:00:00 9.8 C 76.0000 %
571 26-12-2019 18:00:00 9.8 C 76.0000 %
572 26-12-2019 19:00:00 9.8 C 76.0000 %
573 26-12-2019 20:00:00 9.8 C 76.0000 %
574 26-12-2019 21:00:00 9.8 C 75.6667 %
575 26-12-2019 22:00:00 9.8 C 75.0000 %
Sensor: Nr:Datum:Temp:Feuchte:
G-T/H 576 26-12-2019 23:00:00 9.75 C 75.0000 %
577 27-12-2019 00:00:00 9.7 C 75.0000 %
578 27-12-2019 01:00:00 9.7 C 75.0000 %
579 27-12-2019 02:00:00 9.71667 C 75.0000 %
580 27-12-2019 03:00:00 9.7 C 75.0000 %
581 27-12-2019 04:00:00 9.7 C 75.0000 %
582 27-12-2019 05:00:00 9.7 C 75.0000 %
583 27-12-2019 06:00:00 9.7 C 75.5000 %
584 27-12-2019 07:00:00 9.7 C 76.0000 %
585 27-12-2019 08:00:00 9.7 C 76.0000 %
586 27-12-2019 09:00:00 9.7 C 76.0000 %
587 27-12-2019 10:00:00 9.68333 C 76.0000 %
588 27-12-2019 11:00:00 9.68333 C 76.0000 %
589 27-12-2019 12:00:00 9.7 C 76.0000 %
590 27-12-2019 13:00:00 9.68333 C 76.0000 %
591 27-12-2019 14:00:00 9.7 C 76.0000 %
592 27-12-2019 15:00:00 9.7 C 76.0000 %
593 27-12-2019 16:00:00 9.7 C 76.0000 %
594 27-12-2019 17:00:00 9.7 C 76.0000 %
595 27-12-2019 18:00:00 9.7 C 76.0000 %
596 27-12-2019 19:00:00 9.7 C 76.0000 %
597 27-12-2019 20:00:00 9.7 C 75.6667 %
598 27-12-2019 21:00:00 9.7 C 75.0000 %
599 27-12-2019 22:00:00 9.7 C 75.0000 %
600 27-12-2019 23:00:00 9.6 C 74.8333 %
Sensor: Nr:Datum:Temp:Feuchte:
G-T/H 601 28-12-2019 00:00:00 9.58333 C 74.0000 %
602 28-12-2019 01:00:00 9.51667 C 74.0000 %
603 28-12-2019 02:00:00 9.38333 C 73.0000 %
604 28-12-2019 03:00:00 9.28333 C 73.0000 %
605 28-12-2019 04:00:00 9.18333 C 72.1667 %
606 28-12-2019 05:00:00 9.06667 C 72.0000 %
607 28-12-2019 06:00:00 8.98333 C 71.8333 %
608 28-12-2019 07:00:00 8.85 C 72.0000 %
609 28-12-2019 08:00:00 8.73333 C 72.0000 %
610 28-12-2019 09:00:00 7.8 C 68.5000 %
611 28-12-2019 10:00:00 6.51667 C 61.6667 %
612 28-12-2019 11:00:00 8.21667 C 65.1667 %
613 28-12-2019 12:00:00 8.3 C 67.6667 %
614 28-12-2019 13:00:00 8.2 C 69.0000 %
615 28-12-2019 14:00:00 8.16667 C 69.8333 %
616 28-12-2019 15:00:00 8.08333 C 70.0000 %
617 28-12-2019 16:00:00 7.95 C 68.8333 %
618 28-12-2019 17:00:00 8 C 69.0000 %
619 28-12-2019 18:00:00 7.96667 C 69.6667 %
620 28-12-2019 19:00:00 7.91667 C 70.8333 %
621 28-12-2019 20:00:00 7.9 C 71.0000 %
622 28-12-2019 21:00:00 7.86667 C 71.0000 %
623 28-12-2019 22:00:00 7.8 C 71.0000 %
624 28-12-2019 23:00:00 7.76667 C 70.5000 %
625 29-12-2019 00:00:00 7.7 C 70.0000 %
Sensor: Nr:Datum:Temp:Feuchte:
G-T/H 626 29-12-2019 01:00:00 7.6 C 70.0000 %
627 29-12-2019 02:00:00 7.51667 C 70.0000 %
628 29-12-2019 03:00:00 7.5 C 70.0000 %
629 29-12-2019 04:00:00 7.41667 C 69.8333 %
630 29-12-2019 05:00:00 7.36667 C 69.0000 %
631 29-12-2019 06:00:00 7.3 C 69.0000 %
632 29-12-2019 07:00:00 7.23333 C 69.0000 %
633 29-12-2019 08:00:00 7.15 C 69.0000 %
634 29-12-2019 09:00:00 7.18333 C 69.0000 %
635 29-12-2019 10:00:00 7.35 C 69.0000 %
636 29-12-2019 11:00:00 7.23333 C 69.0000 %
637 29-12-2019 12:00:00 7.2 C 69.1667 %
638 29-12-2019 13:00:00 7.1 C 70.0000 %
639 29-12-2019 14:00:00 7.1 C 70.0000 %
640 29-12-2019 15:00:00 7.1 C 70.0000 %
641 29-12-2019 16:00:00 7.1 C 70.0000 %
642 29-12-2019 17:00:00 7.01667 C 70.0000 %
643 29-12-2019 18:00:00 7.01667 C 70.0000 %
644 29-12-2019 19:00:00 7 C 70.0000 %
645 29-12-2019 20:00:00 7 C 70.0000 %
646 29-12-2019 21:00:00 7 C 70.0000 %
647 29-12-2019 22:00:00 6.96667 C 70.1667 %
648 29-12-2019 23:00:00 7.01667 C 70.3333 %
649 30-12-2019 00:00:00 7.06667 C 70.0000 %
650 30-12-2019 01:00:00 7 C 70.0000 %
Sensor: Nr:Datum:Temp:Feuchte:
G-T/H 651 30-12-2019 02:00:00 6.96667 C 70.3333 %
652 30-12-2019 03:00:00 7.06667 C 69.3333 %
653 30-12-2019 04:00:00 6.96667 C 69.3333 %
654 30-12-2019 05:00:00 6.96667 C 69.6667 %
655 30-12-2019 06:00:00 7.1 C 69.0000 %
656 30-12-2019 07:00:00 6.91667 C 69.8333 %
657 30-12-2019 08:00:00 6.85 C 70.0000 %
658 30-12-2019 09:00:00 7.11667 C 68.5000 %
659 30-12-2019 10:00:00 6.95 C 68.5000 %
660 30-12-2019 11:00:00 6.83333 C 69.0000 %
661 30-12-2019 12:00:00 7.06667 C 68.6667 %
662 30-12-2019 13:00:00 6.98333 C 68.1667 %
663 30-12-2019 14:00:00 6.86667 C 69.3333 %
664 30-12-2019 15:00:00 6.9 C 69.8333 %
665 30-12-2019 16:00:00 7.45 C 69.0000 %
666 30-12-2019 17:00:00 7.86667 C 69.0000 %
667 30-12-2019 18:00:00 7.9 C 69.0000 %
668 30-12-2019 19:00:00 7.8 C 68.5000 %
669 30-12-2019 20:00:00 7.53333 C 68.0000 %
670 30-12-2019 21:00:00 7.38333 C 68.0000 %
671 30-12-2019 22:00:00 7.3 C 68.0000 %
672 30-12-2019 23:00:00 7.21667 C 68.1667 %
673 31-12-2019 00:00:00 7.11667 C 69.0000 %
674 31-12-2019 01:00:00 7.03333 C 69.0000 %
675 31-12-2019 02:00:00 6.95 C 69.5000 %
Sensor: Nr:Datum:Temp:Feuchte:
G-T/H 676 31-12-2019 03:00:00 6.86667 C 70.0000 %
677 31-12-2019 04:00:00 6.95 C 69.3333 %
678 31-12-2019 05:00:00 6.88333 C 69.1667 %
679 31-12-2019 06:00:00 6.8 C 70.0000 %
680 31-12-2019 07:00:00 6.7 C 70.0000 %
681 31-12-2019 08:00:00 6.71667 C 70.0000 %
682 31-12-2019 09:00:00 7.26667 C 68.5000 %
683 31-12-2019 10:00:00 7.05 C 68.6667 %
684 31-12-2019 11:00:00 6.9 C 69.5000 %
685 31-12-2019 12:00:00 6.9 C 70.0000 %
686 31-12-2019 13:00:00 6.86667 C 70.6667 %
687 31-12-2019 14:00:00 6.83333 C 71.0000 %
688 31-12-2019 15:00:00 6.88333 C 71.0000 %
689 31-12-2019 16:00:00 6.88333 C 71.0000 %
690 31-12-2019 17:00:00 6.85 C 71.0000 %
691 31-12-2019 18:00:00 6.88333 C 69.3333 %
692 31-12-2019 19:00:00 7.13333 C 69.1667 %
693 31-12-2019 20:00:00 7.01667 C 70.0000 %
694 31-12-2019 21:00:00 7 C 70.3333 %
695 31-12-2019 22:00:00 6.98333 C 71.1667 %
696 31-12-2019 23:00:00 6.9 C 72.0000 %

Maximal/Minimal-Werte vom 03.12.2019 - 31.12.2019

Sensor Min Max Avg
Temp
(Aussen-T/F)
-5 °C
29-12-2019  07:23:17
13.8 °C
17-12-2019  17:52:17
4.44 °C
Feuchte
(Aussen-T/F)
20 %
07-12-2019  13:11:17
46 %
10-12-2019  04:51:17
35.01 %
Temp
(G-T/H)
5.1 °C
28-12-2019  10:13:17
11.1 °C
17-12-2019  19:12:17
9.23 °C
Feuchte
(G-T/H)
61 %
28-12-2019  09:53:17
77 %
17-12-2019  23:12:17
73.35 %

Die Daten stammen von einer Davis Vantage Pro 2 Wetter-Station und werden unter Linux mit der Software wview2wettercgi und aufbereitet. Alle Angaben erfolgen ohne Gewähr für ihre Vollständigkeit oder Richtigkeit.
Kontakt: Rainer Krienke krienke@uni-koblenz.de . Meine Webseiten an der Uni Koblenz oder privat.
Version: $Revision: 0.78 $